GFSCGP_con_lsi_078.txt.gz
Lid_Strength_Index
11 14 16 15 13 14 13 15 15 14 11 12 11 12 11 11 10 10 10 9 9 8 5 4 3 3 4 4 3 3 3 3 3 3 2 2 3 2 1 0 0 1 1 1
12 15 12 12 13 13 14 15 15 13 11 11 12 12 10 10 10 9 9 9 8 8 5 5 4 3 4 3 3 3 2 3 2 1 1 1 2 1 1 1 1 1 3 3
13 12 10 11 12 13 14 15 14 14 12 10 12 13 12 10 10 9 9 8 8 8 6 5 5 4 4 3 3 3 3 3 3 1 2 2 1 1 2 1 1 2 2 3
12 10 10 11 12 12 15 11 12 12 14 17 12 19 13 11 10 10 9 9 9 8 6 5 5 5 4 3 2 3 3 3 2 1 2 2 3 3 2 2 1 1 2 3
12 11 12 12 11 10 13 10 12 12 14 15 15 17 15 12 12 11 9 8 9 8 5 5 5 4 3 3 3 3 4 3 2 2 2 3 3 3 2 2 2 2 1 1
10 8 9 10 9 9 9 11 12 13 14 19 15 16 16 13 12 10 8 8 8 9 5 5 4 4 3 3 3 3 3 3 2 3 2 3 3 2 3 3 2 2 2 1
12 12 9 9 12 10 11 14 19 20 20 20 13 16 14 11 10 8 9 8 8 8 7 5 5 5 4 4 3 3 4 4 3 3 2 2 4 3 4 2 2 2 2 2
15 17 12 9 11 13 13 14 18 23 22 20 13 17 14 9 8 7 7 7 7 9 8 5 5 5 4 4 3 4 4 4 3 3 3 3 4 3 3 3 2 1 1 2
16 15 10 9 9 10 13 16 12 17 16 19 17 14 11 10 10 8 8 8 8 7 7 6 5 4 4 4 4 4 4 4 3 3 3 3 4 3 2 3 2 1 1 2
13 15 11 10 9 10 11 10 17 16 22 23 18 17 17 13 12 10 9 9 8 7 6 5 5 5 4 3 3 4 4 4 3 3 2 2 2 3 3 4 3 2 2 2
11 13 13 11 13 14 13 14 14 14 17 21 22 19 11 12 11 10 9 8 7 7 6 6 5 4 3 3 3 4 4 4 3 3 2 2 1 3 3 3 4 4 2 2
10 12 16 14 10 9 11 13 13 18 19 17 18 18 10 10 9 9 9 8 7 7 6 5 5 4 4 4 4 4 4 4 3 3 3 2 1 2 3 3 3 3 3 2
10 14 17 16 13 11 13 12 12 13 14 18 20 18 9 9 9 8 9 9 9 9 9 7 6 5 4 4 4 4 4 4 3 3 3 3 2 2 3 2 2 3 3 3
8 12 15 17 15 13 15 12 11 13 17 17 17 15 12 11 10 9 8 10 11 10 10 10 10 8 8 7 7 6 6 4 3 3 3 4 3 3 4 4 4 3 3 3
10 14 14 13 12 12 13 13 13 14 14 17 14 14 12 10 10 9 8 11 12 13 13 12 11 11 10 10 9 9 8 7 6 4 5 7 5 3 4 4 4 4 3 3
10 14 13 14 12 12 14 13 13 13 12 13 13 13 9 8 8 8 9 11 13 14 14 14 14 13 12 12 12 12 11 11 9 10 9 9 8 7 8 6 4 3 3 3
11 13 14 16 13 14 17 13 13 13 11 11 15 11 9 10 9 9 10 11 13 14 14 15 14 14 14 14 13 14 13 12 12 12 11 11 10 10 9 8 8 8 8 7
12 13 14 16 15 21 14 11 11 12 11 10 10 10 9 10 10 10 10 12 13 14 15 15 15 15 14 14 14 14 15 15 15 14 13 12 12 12 11 11 11 11 10 11
9 12 15 18 17 15 13 11 11 12 12 9 10 10 10 11 11 13 12 13 14 15 15 15 15 15 15 15 15 15 16 16 16 15 15 14 13 13 13 13 12 12 13 14
10 11 14 15 18 21 14 10 8 9 15 9 9 10 11 10 14 15 13 14 15 15 15 16 16 16 15 15 15 17 17 18 17 16 16 15 14 14 14 13 13 14 14 15
14 13 16 16 17 15 10 9 8 16 14 9 8 9 10 11 12 14 14 15 15 15 16 16 16 17 16 15 16 17 18 18 17 16 16 15 15 15 14 14 13 14 14 15
14 15 16 15 17 18 8 9 13 10 8 10 10 10 13 14 14 15 15 16 16 16 16 16 17 17 16 16 16 17 18 17 17 16 16 16 16 15 15 15 15 14 14 15
15 12 14 13 13 9 8 9 7 6 7 11 12 13 13 14 15 16 16 16 16 16 16 16 17 17 17 16 15 17 17 17 17 16 17 17 16 16 15 15 15 15 14 14
10 8 12 12 10 9 8 9 10 10 10 9 10 12 13 15 16 16 16 17 17 17 17 17 17 18 18 17 16 15 16 15 16 16 16 16 16 16 15 15 15 15 15 15
10 10 11 11 9 9 9 9 10 11 11 13 13 14 15 15 16 16 17 18 18 18 18 17 18 18 18 17 17 17 15 16 17 17 17 17 16 16 16 15 15 15 15 15
10 12 13 13 10 10 11 10 10 12 12 14 15 16 16 16 17 18 19 19 19 19 18 18 18 18 18 18 18 18 16 15 16 18 18 19 18 18 18 17 17 15 15 15

GFSCGP_con_lsi_081.txt.gz
Lid_Strength_Index
8 11 14 11 11 11 12 13 14 12 10 11 12 11 10 8 7 7 7 6 6 5 4 4 2 2 2 2 2 2 2 1 2 2 2 2 2 1 0 0 -1 -1 -0 -0
10 12 10 10 10 12 12 14 14 12 10 11 11 12 9 8 8 7 6 6 5 5 4 4 3 3 2 2 2 3 2 1 2 1 1 2 1 1 0 -0 -0 -0 0 -0
12 11 9 10 11 12 12 13 13 13 11 10 11 13 11 9 8 7 6 6 6 5 5 4 4 3 3 3 2 3 2 1 2 1 1 1 1 1 1 1 1 1 1 1
10 8 9 10 11 10 14 10 11 11 13 16 10 17 12 10 9 8 6 6 5 5 5 5 4 4 3 3 2 2 2 2 2 0 1 2 2 3 2 1 1 1 2 2
12 11 11 11 10 10 12 9 10 11 13 14 13 15 12 10 10 9 7 6 5 5 5 5 4 3 3 2 2 2 3 2 2 1 1 2 2 2 1 1 1 1 1 2
11 7 9 9 9 8 8 10 11 11 13 18 14 14 14 11 10 8 7 6 5 5 5 4 3 3 3 2 2 3 3 3 2 1 1 1 1 2 2 2 2 2 1 1
11 11 9 8 11 9 10 13 17 19 19 18 12 15 13 10 9 8 8 7 6 5 5 5 5 4 4 3 3 3 3 3 3 2 1 1 1 1 2 2 2 2 2 2
14 16 11 9 10 11 12 13 16 22 20 18 13 16 13 9 8 7 7 7 6 6 5 4 4 4 4 3 3 2 2 3 3 2 1 2 1 1 1 1 1 1 1 1
14 14 9 9 8 9 13 15 11 16 15 18 15 12 10 9 9 8 8 7 7 6 5 5 4 4 3 3 3 2 3 3 4 2 1 2 1 1 1 1 1 1 1 1
11 14 10 10 8 9 11 10 17 16 21 21 17 16 16 13 11 9 9 8 7 6 6 5 4 4 3 3 3 2 3 4 3 2 2 2 1 1 1 1 1 1 1 0
10 11 13 10 12 13 13 14 14 14 16 19 20 16 11 12 10 10 9 8 8 7 6 5 5 4 3 3 3 3 3 4 3 2 2 1 1 1 1 1 1 1 1 1
9 11 14 13 9 8 10 13 12 17 18 17 17 16 9 10 9 9 9 9 8 8 8 6 5 4 4 4 3 3 4 4 3 2 2 1 1 1 2 1 1 1 1 0
10 13 16 15 12 11 13 12 12 13 14 17 18 15 9 9 9 8 10 10 11 9 9 9 8 5 4 4 4 4 4 4 3 2 2 2 2 2 2 1 1 1 1 1
8 12 14 16 14 12 14 12 11 13 16 17 16 14 11 10 10 9 10 10 11 12 11 11 10 10 9 8 7 7 6 4 3 3 2 2 2 2 1 1 1 0 0 1
10 15 13 12 11 12 12 12 12 13 12 15 13 13 11 9 9 9 10 11 12 13 14 13 13 13 12 11 10 9 9 8 5 6 7 7 6 3 3 2 2 1 1 2
9 14 13 14 12 13 14 13 13 12 12 12 12 12 8 7 7 8 10 12 13 14 14 15 14 14 14 13 12 12 12 11 10 10 10 9 9 9 8 7 7 6 5 6
11 12 13 16 13 13 16 13 12 11 10 11 14 10 8 9 9 8 10 13 14 15 15 15 15 15 15 15 15 15 14 13 13 12 12 11 11 11 10 9 9 9 10 10
11 12 12 14 14 20 13 10 9 11 10 8 9 9 9 9 10 10 11 12 14 16 15 16 16 15 15 15 15 15 15 15 14 15 14 13 12 12 11 11 11 12 12 13
8 11 14 16 16 14 12 10 11 12 12 9 10 9 9 11 12 14 13 13 14 15 15 16 15 15 15 15 15 15 16 16 16 17 16 14 13 13 12 13 13 13 14 15
9 9 12 14 18 19 13 9 7 8 13 9 8 9 10 10 13 15 13 14 15 15 16 16 16 16 15 15 15 16 17 17 17 16 16 15 14 14 14 14 14 14 14 15
13 12 14 14 15 13 10 8 7 14 14 8 9 8 8 11 13 15 15 16 15 15 15 15 16 16 17 16 16 17 17 18 17 16 16 16 15 15 15 15 14 14 14 14
13 14 15 14 16 17 8 8 12 10 7 9 11 11 14 15 16 16 16 16 16 16 16 16 17 17 16 16 17 18 19 18 17 17 17 17 16 16 15 15 15 14 14 15
14 12 13 12 12 8 9 9 9 7 8 9 10 12 14 16 17 16 17 16 16 17 17 17 17 18 18 17 17 18 18 17 17 17 18 17 17 16 16 15 15 15 15 15
10 8 11 11 9 9 8 9 10 10 11 10 10 12 14 16 16 17 17 17 18 17 18 17 18 18 18 18 17 17 17 16 16 17 16 16 16 15 15 15 15 15 15 15
10 9 11 10 9 9 10 9 10 11 12 12 12 13 14 15 16 17 18 18 18 18 18 18 18 18 18 18 17 16 16 16 17 17 17 17 16 17 16 16 16 16 15 14
10 11 12 12 11 11 12 11 11 12 13 12 13 15 16 16 18 18 18 18 18 18 18 18 18 18 18 18 17 17 17 16 17 17 17 17 17 17 16 17 17 15 15 15

GFSCGP_con_lsi_084.txt.gz
Lid_Strength_Index
10 12 13 12 10 9 10 12 13 11 8 9 10 9 8 6 6 6 5 5 4 4 2 2 1 1 1 1 1 1 1 1 1 1 1 1 1 1 0 -0 0 -0 -0 -0
11 13 9 8 10 11 11 11 11 10 8 9 9 9 7 6 6 6 5 5 4 3 3 2 1 1 1 1 1 1 1 1 1 1 1 1 1 1 0 -0 -1 -1 -1 -1
11 10 8 8 8 9 10 11 10 10 8 8 9 10 8 6 6 6 5 5 4 4 3 3 2 2 2 2 2 2 1 1 1 0 1 0 0 0 1 1 0 -0 -0 -0
10 8 10 10 9 9 12 9 9 10 11 13 9 14 9 7 7 6 5 5 4 4 3 3 2 2 2 2 1 1 1 1 1 0 1 1 2 3 1 1 0 -0 -0 0
11 10 10 11 9 8 10 8 9 10 11 12 11 13 10 8 9 7 6 5 4 3 3 3 2 2 2 1 2 1 1 1 1 1 0 1 1 1 1 1 1 1 1 1
9 7 8 8 7 7 7 9 10 10 11 17 12 12 10 10 10 8 7 5 5 4 3 3 2 2 2 1 2 2 2 2 1 1 1 1 1 1 1 2 2 1 1 1
10 10 8 7 9 8 9 11 14 17 18 16 11 13 11 9 8 8 7 6 5 4 4 4 3 3 3 3 3 2 2 2 1 1 1 1 1 1 1 2 2 2 2 2
12 14 9 7 9 10 10 10 14 19 17 14 11 15 12 8 7 6 6 6 5 5 4 4 3 3 3 3 3 3 3 2 2 1 1 1 1 1 1 1 1 1 1 2
12 12 8 8 7 8 11 14 10 15 13 16 12 11 9 8 8 7 7 6 6 5 5 4 3 3 3 3 3 3 2 2 2 1 1 1 1 1 1 1 0 1 0 0
9 13 9 9 8 8 10 8 16 14 19 19 14 13 13 11 10 8 8 7 7 6 6 5 4 3 3 3 3 2 2 2 2 2 1 1 1 1 1 1 1 0 0 0
8 10 11 10 11 11 12 13 13 13 15 18 17 14 10 11 10 9 7 7 8 8 8 7 4 3 3 3 3 3 2 3 2 2 1 1 1 1 1 1 1 0 0 0
8 10 13 12 9 7 9 11 11 15 17 15 17 14 8 8 8 7 8 8 8 9 10 8 7 4 4 3 3 3 2 3 2 1 1 1 1 1 1 1 1 0 0 0
10 11 14 14 11 9 11 11 12 12 12 15 18 15 8 7 7 7 8 8 9 10 11 11 10 8 5 4 3 4 2 3 3 2 2 1 1 1 1 2 1 0 0 0
9 12 12 14 13 11 13 11 10 12 15 15 14 12 9 8 8 8 8 9 10 12 13 12 12 11 10 8 7 5 3 3 3 2 2 2 2 1 1 1 1 1 1 1
10 14 12 11 10 10 11 11 10 11 11 13 12 12 9 7 7 7 8 10 12 13 13 14 13 13 13 12 11 10 8 7 5 6 6 6 5 3 2 1 1 1 1 1
10 14 13 14 10 11 13 11 11 11 11 10 10 10 7 6 6 8 8 11 13 14 15 15 14 14 15 14 13 12 12 10 9 9 9 8 8 8 8 7 6 7 7 8
11 11 13 16 12 12 14 12 11 10 9 9 12 9 7 8 9 8 10 12 14 15 15 16 15 16 16 16 15 15 14 12 12 12 11 11 10 11 10 10 11 12 12 11
12 12 10 13 13 18 12 8 9 10 9 9 9 9 9 9 10 10 11 12 14 15 16 16 16 16 16 16 15 15 15 15 14 14 13 13 12 12 12 12 13 13 13 14
8 10 12 14 14 13 11 9 9 10 10 8 9 8 8 10 12 14 13 13 14 15 16 16 15 16 16 16 16 16 16 16 15 15 15 14 13 13 14 14 14 14 15 15
8 8 11 12 18 18 11 8 6 7 12 7 7 8 9 9 12 16 14 14 15 15 15 15 16 16 16 16 16 16 17 16 16 16 16 14 15 14 14 14 15 14 14 15
12 11 13 13 14 11 9 7 6 13 13 7 8 10 9 10 14 15 15 15 15 15 15 15 15 17 17 16 15 17 16 17 16 16 15 15 15 15 14 14 13 14 14 14
12 12 13 12 14 16 7 7 11 9 7 8 10 11 13 15 15 15 15 16 15 15 15 15 16 16 15 15 16 18 18 16 16 16 16 16 15 15 15 14 14 14 14 14
13 11 12 10 12 8 8 8 7 8 9 10 10 11 13 14 16 16 16 16 16 16 16 16 16 16 16 16 16 17 17 17 16 16 16 17 16 16 15 15 15 15 14 14
9 7 12 10 10 9 9 8 9 10 11 11 10 11 13 15 16 16 16 16 16 16 16 16 17 17 17 16 16 16 16 16 16 16 16 17 16 16 15 15 15 15 14 14
9 8 10 10 9 10 10 10 9 10 10 11 11 13 14 15 16 16 17 17 16 16 16 16 17 17 17 17 17 16 15 15 16 16 16 16 16 17 17 17 16 17 16 16
8 11 11 12 10 10 11 10 10 12 12 11 12 14 14 15 16 16 17 17 16 17 16 17 17 17 17 17 17 17 15 14 14 15 15 15 15 15 15 16 18 17 17 16

GFSCGP_con_lsi_087.txt.gz
Lid_Strength_Index
8 11 12 11 10 10 11 11 12 10 7 9 10 10 8 7 6 6 5 5 4 3 2 2 1 1 1 1 1 1 1 1 1 1 2 1 2 1 0 -0 -0 -0 -0 -0
9 11 9 9 9 11 11 11 11 8 7 8 8 9 7 6 6 5 5 4 4 3 3 2 2 1 1 1 1 1 1 1 1 1 1 1 1 1 0 -0 -0 -0 0 0
9 8 7 9 10 11 9 10 10 10 8 8 8 10 9 6 5 5 4 4 4 4 3 3 2 2 1 1 1 1 1 1 1 0 0 0 0 1 1 1 1 -0 -0 -0
8 6 7 9 10 9 11 7 8 9 10 12 8 14 9 7 7 6 5 4 4 4 3 3 2 2 2 2 1 1 1 1 1 0 1 1 2 3 1 1 0 0 -0 -0
8 8 8 9 9 8 10 7 9 9 10 11 11 12 10 7 8 7 6 5 4 3 3 3 2 2 1 1 1 1 1 1 1 1 1 1 1 1 1 1 1 1 0 -0
7 5 6 7 7 8 7 8 9 9 10 15 11 11 11 9 9 8 7 6 5 4 3 3 2 2 2 1 1 1 2 1 1 1 1 1 1 1 2 2 2 1 1 0
8 8 6 6 9 7 8 11 15 16 17 17 10 12 10 9 8 8 7 6 5 5 4 4 3 3 2 2 2 2 2 2 1 1 1 1 1 1 1 2 2 2 2 1
11 12 8 6 8 10 10 11 15 18 17 16 11 14 11 7 7 6 6 5 5 5 4 4 4 3 2 2 2 2 3 3 2 1 1 1 1 1 1 1 1 1 1 1
12 11 7 7 6 7 9 12 8 12 12 15 13 10 9 7 8 7 6 6 6 5 5 5 4 3 2 2 3 3 3 2 2 1 1 1 1 1 1 1 1 1 0 1
10 13 8 7 7 7 8 8 14 13 18 18 13 12 13 12 10 7 7 7 6 5 5 7 5 4 2 3 2 2 2 2 2 1 1 1 1 1 1 1 1 1 1 0
9 11 11 8 10 11 10 12 12 12 13 17 18 15 10 10 8 8 7 6 6 6 6 9 9 7 3 3 3 3 2 2 2 1 1 1 1 1 1 1 1 1 0 0
9 12 14 11 8 7 9 10 11 15 15 13 15 14 8 7 7 7 7 6 6 6 7 11 11 10 4 3 3 3 3 2 2 1 1 1 1 1 1 1 1 0 1 0
10 13 16 12 11 8 10 10 10 11 12 15 17 15 8 6 6 6 7 6 6 7 9 11 11 11 11 7 3 3 3 2 2 2 2 2 2 2 1 1 1 1 1 1
8 11 13 15 13 11 12 10 10 11 15 14 14 11 8 8 7 6 7 6 7 9 10 12 13 13 13 11 9 8 4 2 2 2 2 2 2 2 1 1 1 1 1 1
10 14 12 11 11 11 12 11 11 12 11 14 11 11 9 7 7 7 6 7 9 11 12 14 14 14 14 13 12 11 10 7 5 6 5 6 5 2 2 2 4 1 2 2
9 13 13 13 9 10 11 10 10 10 10 10 10 10 8 7 6 7 7 9 11 12 14 14 15 15 15 15 14 13 12 11 9 9 9 8 8 7 7 8 8 8 8 8
12 12 14 16 11 10 13 11 11 10 8 9 13 10 8 9 11 11 11 12 13 14 14 15 15 16 16 16 15 15 14 13 12 12 11 11 11 11 11 11 11 11 12 11
11 12 13 15 12 18 11 8 8 10 9 8 8 8 9 11 12 13 13 13 15 15 15 14 15 16 16 15 15 15 15 15 15 14 13 12 13 13 13 13 14 15 14 15
8 12 14 15 16 13 11 9 9 10 12 8 9 8 8 10 11 13 13 14 15 15 16 15 15 16 16 16 15 15 16 16 16 15 15 14 13 14 15 15 15 15 16 16
8 8 12 11 15 17 12 8 6 6 13 8 7 8 8 8 12 14 13 14 15 15 15 16 16 16 16 16 15 16 17 17 17 17 16 15 15 15 15 15 15 15 15 16
11 11 13 12 13 11 8 7 6 13 14 8 8 10 12 13 13 14 14 15 15 15 15 14 15 16 16 15 16 16 17 17 17 17 16 16 15 15 15 15 14 15 15 15
11 12 12 11 13 16 7 7 11 9 7 8 10 11 13 14 14 14 14 14 14 15 14 14 15 16 15 16 16 17 17 16 16 16 16 15 15 15 15 14 14 14 14 14
12 11 13 12 14 8 7 8 7 8 10 10 11 11 12 13 14 14 15 15 15 15 15 15 16 16 16 15 15 17 17 17 16 16 16 16 16 16 16 15 15 15 15 15
9 7 10 10 9 9 8 7 8 9 10 10 10 11 12 14 14 14 14 15 15 15 15 15 16 17 17 15 15 16 15 15 16 18 18 18 18 18 17 18 18 19 17 17
9 7 9 10 9 8 8 9 9 9 10 10 11 11 13 13 14 14 15 15 15 15 15 15 16 16 17 16 16 15 14 14 15 16 16 17 17 18 19 19 18 18 18 17
8 10 11 12 9 9 10 9 9 11 11 11 12 13 13 14 15 15 16 15 15 15 15 16 16 16 17 17 17 16 15 14 15 16 16 15 15 16 17 18 19 17 17 17

GFSCGP_con_lsi_090.txt.gz
Lid_Strength_Index
8 11 13 11 10 10 11 11 12 11 9 9 10 10 10 8 8 8 6 6 6 5 3 2 2 2 2 1 1 2 2 1 1 2 2 2 2 1 1 0 0 0 -0 0
8 11 9 9 9 10 10 12 12 11 10 10 10 11 9 7 6 6 6 6 6 5 4 3 2 2 2 2 2 2 2 2 1 1 1 1 1 1 1 0 0 -0 -0 0
10 8 7 8 9 10 10 12 12 12 10 10 10 12 9 7 6 6 6 5 5 5 4 3 3 3 2 2 2 2 2 2 1 1 1 1 1 1 2 1 1 0 1 0
9 6 7 8 9 8 11 8 9 11 11 15 9 14 10 9 8 6 5 5 4 4 4 3 3 3 3 2 2 2 2 2 1 1 2 2 3 3 2 2 1 1 0 0
9 8 8 9 8 7 10 7 9 10 11 11 11 13 11 8 9 7 6 6 6 5 4 4 3 3 2 2 2 2 2 2 1 1 1 2 2 2 2 1 1 1 1 0
8 5 7 7 7 7 7 8 9 10 11 16 12 12 12 10 10 9 7 6 6 5 5 4 3 3 2 2 2 2 2 2 2 1 1 2 2 2 2 2 2 2 1 1
9 9 7 6 8 7 8 11 15 17 17 17 11 14 11 9 8 8 8 6 6 5 5 5 4 4 4 3 3 2 2 3 2 2 2 2 2 2 2 2 2 2 2 2
12 13 8 7 8 9 9 10 15 20 19 16 12 17 12 8 7 6 6 6 5 5 5 5 4 4 4 3 3 3 3 3 2 2 2 1 1 2 2 2 2 2 2 1
13 12 7 7 7 8 9 14 9 14 14 16 13 13 10 9 8 7 7 6 6 6 5 5 5 4 5 3 3 3 3 3 2 2 2 2 1 1 2 1 1 1 1 1
10 14 8 8 8 7 8 8 15 14 21 19 14 13 13 13 10 8 8 7 6 6 5 7 7 7 5 3 3 2 2 3 2 2 2 2 2 1 1 1 1 1 1 1
8 11 11 8 12 11 10 11 11 13 14 19 20 17 11 12 10 8 8 7 6 6 7 8 9 10 9 5 3 3 2 3 2 2 2 2 2 1 1 1 1 1 1 1
9 11 14 12 8 8 10 10 11 17 17 14 16 16 10 10 8 7 7 6 6 7 7 10 10 11 11 10 8 3 3 3 2 2 2 2 2 1 1 2 1 1 1 1
8 12 16 13 10 10 12 11 11 11 13 17 20 16 8 7 7 7 7 6 7 8 9 10 12 12 13 12 11 9 3 3 3 3 2 2 2 2 2 2 1 1 1 1
8 11 13 17 14 12 15 13 11 12 17 16 16 14 12 9 9 8 7 7 9 10 11 12 13 14 13 13 12 12 9 3 3 3 2 2 2 2 2 2 1 1 1 1
10 14 11 11 11 12 12 13 11 13 13 17 14 13 12 10 9 8 7 8 10 11 12 13 14 15 14 14 13 13 12 9 6 6 6 6 5 4 5 6 5 5 5 6
8 13 12 13 11 11 14 12 12 12 12 12 11 13 9 9 10 10 10 11 12 13 13 14 15 15 15 15 15 13 13 12 10 10 9 9 8 8 9 10 9 9 10 10
10 11 13 15 12 13 17 11 11 10 10 10 14 11 8 10 12 13 12 13 14 14 15 15 15 16 15 15 15 15 14 13 13 12 12 11 12 12 12 12 12 12 13 12
10 12 13 16 14 20 11 7 8 11 10 9 9 9 8 10 12 12 12 14 14 15 16 16 15 15 15 15 15 15 15 15 14 14 13 13 14 14 14 14 14 14 14 14
9 11 15 17 17 13 11 9 9 10 13 8 9 8 8 10 11 13 13 13 14 15 16 16 15 15 15 15 16 15 16 15 16 16 16 15 15 15 15 15 15 15 15 16
9 9 14 15 17 19 14 8 6 7 15 9 9 10 11 9 12 15 13 13 14 14 15 15 15 15 15 16 15 16 17 17 16 17 16 15 15 15 16 16 16 15 16 17
12 13 15 15 15 15 10 7 6 14 15 9 10 11 13 15 14 13 12 14 13 14 15 14 15 16 15 16 15 16 17 17 16 16 16 16 16 15 15 15 15 15 16 16
13 13 14 13 14 18 8 8 12 11 9 10 11 12 13 14 13 13 13 13 13 14 14 14 15 16 15 15 16 16 17 16 16 16 16 16 17 16 16 16 15 16 16 17
14 12 14 13 14 9 8 9 9 9 10 10 10 11 12 13 14 14 14 14 14 14 15 15 15 15 15 15 15 16 16 16 17 17 18 18 18 17 18 19 18 16 16 17
9 7 11 11 10 9 9 9 9 9 10 9 10 11 12 14 14 14 13 14 14 14 15 15 16 17 17 16 15 15 14 15 16 17 18 19 20 20 19 19 20 20 19 19
10 8 10 11 10 10 10 10 9 10 10 11 10 11 12 13 14 14 14 15 15 15 15 15 16 17 17 16 16 15 14 14 15 16 17 18 19 20 21 21 20 20 20 19
10 12 12 13 10 10 11 10 10 11 11 11 12 12 13 14 15 15 16 15 15 15 15 16 16 16 16 16 16 16 14 14 15 16 16 16 17 18 19 20 21 19 19 18

GFSCGP_con_lsi_093.txt.gz
Lid_Strength_Index
10 15 16 14 13 12 13 14 14 13 11 12 12 12 11 10 10 10 10 10 8 8 7 6 5 5 4 3 4 2 2 2 1 2 2 2 3 2 2 2 0 0 1 2
11 14 11 10 10 11 12 13 14 12 10 12 13 13 11 10 10 9 8 8 9 7 6 5 4 4 4 3 3 2 2 1 2 2 2 2 3 3 2 1 0 0 1 2
13 10 7 9 10 11 11 12 13 12 11 11 12 13 12 9 9 7 7 7 6 8 6 6 5 4 4 4 3 2 2 2 2 2 3 3 3 3 3 3 2 0 -0 1
11 8 9 9 10 10 12 9 9 10 12 16 12 17 12 10 9 8 7 7 8 6 5 5 6 5 5 4 2 2 2 2 2 2 3 4 3 4 3 2 1 1 0 0
11 10 10 10 10 8 10 8 9 10 12 13 12 15 13 9 10 10 8 7 7 6 5 5 4 4 4 3 3 2 2 2 2 2 3 4 4 4 3 3 2 1 1 0
10 7 9 9 8 8 7 9 10 11 13 16 13 14 15 12 10 10 8 7 6 6 5 5 4 4 3 3 3 2 2 2 2 3 3 3 4 4 3 3 3 2 1 1
10 9 8 8 10 8 9 12 17 19 19 18 12 15 13 11 9 9 9 7 7 6 6 6 6 6 5 4 5 3 3 3 2 3 3 2 3 3 3 3 3 3 3 3
14 15 10 7 10 12 11 12 18 21 20 17 12 18 14 10 8 8 7 7 6 6 6 7 7 7 7 4 4 3 3 3 3 3 3 2 2 3 3 2 2 3 3 2
15 14 8 8 8 8 11 13 10 16 15 18 15 12 10 9 9 10 8 7 7 7 7 8 8 8 9 8 4 4 4 3 3 3 3 2 2 3 2 3 2 2 2 2
10 15 9 8 8 8 10 9 16 16 21 22 16 14 17 13 11 10 9 8 8 7 8 10 10 10 10 9 7 3 3 4 3 2 2 2 3 3 2 2 3 2 1 1
10 12 12 9 11 13 11 13 12 13 15 20 21 18 12 12 10 10 9 9 9 9 10 10 11 12 12 11 9 8 3 3 3 2 2 3 3 2 2 2 2 2 1 2
9 12 16 13 9 8 10 13 13 18 18 16 17 17 9 9 9 9 8 9 10 10 11 11 12 13 13 12 11 10 9 3 3 2 3 3 3 3 2 2 1 1 1 1
9 13 16 15 11 10 12 12 12 13 13 17 19 18 9 9 9 9 10 11 11 11 12 12 12 13 13 13 12 11 10 8 3 3 3 3 3 3 2 2 2 2 1 1
8 12 14 16 14 11 13 12 12 13 17 17 17 16 12 11 10 10 11 11 12 12 13 13 13 14 14 14 13 12 11 10 3 3 3 3 3 2 2 2 2 2 2 1
10 14 12 12 11 12 12 12 12 14 14 17 15 15 12 11 11 11 11 12 13 14 14 14 15 14 14 14 14 14 13 11 9 7 7 7 6 6 6 6 6 7 7 7
9 14 12 14 11 11 13 12 12 13 13 14 13 14 10 11 11 12 13 13 14 14 14 14 14 15 15 15 14 14 13 12 12 12 11 10 9 10 10 10 10 10 10 10
11 13 14 17 12 13 16 13 12 12 12 12 15 12 10 13 14 14 14 14 14 15 15 15 15 15 15 15 15 15 14 14 14 14 13 12 12 12 12 12 12 13 13 13
11 12 13 16 14 20 13 8 10 12 11 10 10 11 12 13 14 14 14 14 14 15 15 15 15 15 15 15 15 14 14 14 15 15 14 14 14 14 14 14 14 15 15 15
9 12 15 17 17 15 13 11 11 12 13 11 12 12 11 12 13 15 13 14 14 15 15 15 15 15 15 16 15 15 15 15 15 16 15 16 15 15 15 16 16 15 16 16
10 10 14 15 18 20 14 10 8 8 15 11 12 13 12 11 13 17 14 13 14 14 14 15 15 15 16 16 15 16 15 16 17 16 16 15 15 16 16 16 16 16 16 17
13 13 15 16 17 15 12 10 8 15 14 11 12 14 15 16 15 14 13 13 13 13 14 14 15 16 16 15 15 16 16 17 16 16 16 16 16 15 16 16 16 16 17 17
13 15 16 15 17 18 11 10 13 11 10 11 12 14 14 14 14 14 14 14 14 14 14 14 15 15 15 15 16 17 18 17 17 17 17 17 17 17 17 17 17 16 16 17
15 12 14 13 14 11 11 11 10 10 11 11 12 12 13 15 15 15 15 14 14 14 15 15 16 16 16 15 15 17 17 17 18 18 19 19 19 19 19 19 19 18 17 18
10 9 12 11 12 12 11 10 10 10 11 10 11 12 13 15 15 15 14 14 15 15 15 15 16 17 17 16 16 15 15 16 17 18 19 19 19 20 20 20 19 19 20 20
12 10 11 11 11 11 11 11 10 11 11 11 11 12 14 15 15 15 15 15 15 16 16 16 17 17 17 16 16 15 14 14 15 16 17 19 19 20 20 19 19 19 19 19
11 12 13 15 11 11 12 10 10 11 12 12 13 14 13 14 15 15 16 15 16 16 16 16 16 17 17 17 16 15 15 15 15 16 16 17 18 19 20 21 21 18 18 18

GFSCGP_con_lsi_099.txt.gz
Lid_Strength_Index
14 17 18 17 16 15 15 16 17 16 13 14 14 14 12 11 13 13 12 11 10 10 8 8 8 7 8 8 8 2 2 2 1 2 2 2 2 2 2 2 2 2 2 2
15 18 14 13 14 15 15 16 16 14 12 14 14 15 12 11 12 11 10 10 9 9 8 7 7 8 8 7 8 3 2 2 2 2 2 2 2 1 1 2 2 2 3 2
16 13 11 12 13 14 14 15 15 15 12 12 14 14 13 11 10 9 8 8 8 6 6 5 4 4 5 7 8 4 2 2 2 1 1 4 3 3 3 3 3 3 2 2
15 12 12 13 13 12 15 11 11 12 14 17 13 17 13 11 11 9 8 8 7 7 6 6 6 6 5 4 3 5 2 2 2 1 2 2 3 4 2 2 2 3 2 2
14 12 12 13 12 11 13 10 11 12 14 15 14 16 14 10 12 10 9 8 7 7 7 8 7 7 7 7 5 4 2 2 2 2 2 2 3 2 2 2 4 2 2 2
12 10 11 11 10 10 10 11 12 13 14 18 14 15 15 13 11 11 9 8 7 8 8 7 7 7 7 8 7 6 3 2 2 2 2 2 3 4 4 3 4 3 2 1
13 12 11 9 12 10 11 14 18 19 19 18 13 15 14 12 10 10 9 8 8 9 9 9 9 9 9 9 9 9 6 3 2 2 2 2 3 4 4 4 4 4 4 3
15 17 11 10 11 12 12 14 17 21 21 19 13 18 14 10 9 7 7 7 8 10 10 10 10 10 10 9 9 10 9 3 2 2 2 3 4 4 4 4 3 3 3 3
15 15 10 10 10 11 12 15 11 16 15 18 16 14 12 10 10 9 8 8 10 11 12 12 12 11 11 11 10 9 9 3 3 2 3 4 4 4 4 4 3 4 3 2
13 17 12 11 10 10 10 9 16 15 21 21 17 16 16 13 11 9 9 11 11 12 13 13 13 12 12 11 10 9 9 8 3 3 3 3 3 3 3 4 4 4 3 3
12 14 15 13 14 15 14 15 13 14 15 20 21 18 11 12 11 10 11 12 12 13 14 14 14 12 12 12 11 10 10 9 7 3 2 3 3 3 3 3 4 4 3 4
11 14 17 15 11 11 12 13 13 19 18 16 17 18 9 9 10 11 12 12 12 13 14 14 14 13 13 13 13 12 11 10 8 5 2 3 2 2 3 3 3 3 3 3
11 15 18 17 14 11 12 11 11 12 13 17 19 18 9 9 10 11 12 13 14 14 14 14 14 14 14 14 13 13 12 11 10 7 3 2 2 2 3 3 3 3 3 3
9 13 15 17 15 13 14 13 12 12 17 16 16 14 12 11 12 12 13 14 14 14 15 15 15 15 14 14 14 13 13 11 12 10 3 3 2 3 3 2 2 2 2 2
12 15 13 12 12 12 13 13 12 13 13 16 15 14 12 12 13 13 14 14 14 15 15 15 16 15 15 14 14 13 13 12 11 12 11 9 6 5 6 6 7 6 6 6
11 17 13 14 12 12 14 12 11 11 12 12 12 13 11 12 13 14 15 16 16 16 16 15 15 15 15 15 14 14 14 13 13 14 14 13 11 10 11 11 11 10 11 11
13 14 16 18 13 13 16 13 12 11 11 12 15 12 12 14 15 16 16 16 16 16 16 16 15 15 15 15 15 15 15 14 14 15 14 15 15 14 14 14 14 14 13 13
13 15 16 17 15 20 13 10 10 11 11 10 11 12 13 15 15 15 15 16 16 16 16 16 15 15 15 15 15 15 15 16 16 16 15 16 16 16 15 16 16 16 15 15
11 13 19 19 18 15 14 11 12 13 15 13 13 12 14 14 15 16 15 15 15 15 15 15 15 15 15 16 15 16 16 17 17 18 16 17 16 17 17 17 17 16 16 16
12 12 17 17 19 20 14 12 10 10 17 14 14 15 14 14 15 17 14 14 15 15 15 16 15 15 16 16 16 17 18 18 18 17 18 17 16 16 17 17 17 17 17 17
15 15 17 17 18 15 13 12 11 16 17 14 14 15 14 15 15 15 14 15 15 15 15 15 15 15 16 16 16 18 19 19 18 18 17 17 17 16 17 17 17 17 17 17
14 15 16 16 17 18 12 12 14 13 13 13 14 15 16 16 16 16 15 15 16 16 16 15 15 16 15 16 17 19 19 19 19 18 18 19 18 18 17 17 18 18 18 18
16 13 15 14 16 12 12 13 11 11 12 13 14 14 15 16 17 16 16 16 16 16 16 15 16 16 15 15 15 18 18 18 18 19 19 19 19 19 18 19 19 19 19 19
12 11 13 13 13 13 12 12 12 12 13 13 13 13 15 16 17 16 16 16 16 16 17 16 17 17 17 16 16 15 16 17 19 19 20 19 19 19 19 19 19 20 20 20
13 12 13 14 13 13 12 12 13 13 13 14 14 14 15 16 16 16 17 17 16 17 17 17 17 18 18 17 17 17 16 16 18 18 19 19 19 19 19 18 19 19 18 19
12 13 14 16 12 13 13 12 12 13 14 14 15 16 15 16 16 16 17 17 18 18 18 18 18 18 18 18 18 18 17 16 16 17 18 19 19 19 19 19 18 16 16 16

GFSCGP_con_lsi_102.txt.gz
Lid_Strength_Index
15 18 19 17 17 17 17 18 19 18 15 16 16 16 15 13 14 13 12 12 12 11 10 8 5 4 6 9 9 8 5 2 1 2 2 2 2 2 1 1 1 1 1 1
15 18 15 15 16 17 17 18 18 16 14 16 16 16 13 12 12 12 12 12 12 9 5 4 4 4 4 4 4 7 5 2 2 1 1 1 1 1 1 1 1 1 1 1
16 14 12 14 15 16 16 18 17 16 14 14 15 16 14 12 11 10 10 9 7 6 7 6 6 6 6 6 5 4 3 2 2 1 1 3 2 2 2 2 1 1 1 2
16 14 14 14 15 14 17 13 13 14 15 18 14 19 15 13 12 11 8 8 9 9 8 8 8 8 7 7 7 5 4 3 1 1 2 2 3 4 2 2 2 1 1 2
16 14 15 15 14 12 14 11 12 13 15 17 16 17 16 12 13 11 10 8 9 9 9 9 9 8 8 8 7 7 6 5 1 2 2 2 3 2 2 2 2 2 2 2
14 12 12 12 11 11 10 12 12 13 14 19 15 16 16 15 13 11 9 8 8 9 9 9 8 9 9 8 8 7 7 6 3 2 2 2 3 3 3 2 2 2 2 3
14 13 12 10 11 10 12 15 17 19 19 19 14 16 14 12 11 10 9 9 9 9 10 10 10 10 10 10 9 8 8 8 6 2 2 2 2 2 3 2 2 2 3 3
16 18 13 11 12 14 13 13 17 21 21 19 14 18 15 11 9 8 8 8 9 10 10 11 10 11 11 11 10 9 9 8 7 2 2 2 2 3 3 2 2 2 2 3
15 15 11 11 11 12 13 15 12 16 15 18 16 14 12 10 10 9 8 9 10 11 11 12 12 12 12 12 11 10 9 9 8 2 2 2 3 4 4 3 3 3 3 3
13 17 13 12 12 12 13 12 17 16 22 22 17 17 16 13 11 9 9 10 11 12 13 13 13 13 13 12 12 11 9 9 9 7 2 3 2 3 4 4 4 3 3 3
13 15 15 14 14 16 15 16 14 14 16 21 21 18 11 12 10 10 11 11 12 13 14 14 14 14 13 13 13 13 11 9 9 9 5 4 3 3 3 3 4 3 3 3
12 14 17 16 13 12 13 13 13 21 19 16 18 17 9 9 9 9 11 12 13 14 14 14 15 14 14 14 13 13 12 11 10 9 5 2 3 3 3 3 3 3 4 3
12 16 19 18 15 13 14 13 12 13 13 17 20 17 9 9 9 10 12 13 13 14 14 15 15 15 15 14 14 14 13 12 11 9 5 3 3 2 2 3 3 3 3 3
11 14 16 19 16 14 15 13 13 14 21 17 15 14 11 10 12 12 13 13 14 15 15 15 15 15 15 14 14 14 14 12 11 11 11 10 6 2 2 2 2 3 3 4
13 16 14 14 13 13 13 13 13 14 14 17 15 15 12 10 13 14 14 14 15 15 16 16 16 15 15 15 15 14 13 13 13 13 13 13 13 10 6 5 4 4 4 5
12 18 14 15 13 13 14 14 13 13 13 13 13 13 9 10 13 14 15 15 16 17 16 16 15 15 15 16 16 15 15 14 13 13 14 14 14 13 13 11 10 11 12 11
14 16 17 20 14 15 18 14 13 12 11 12 15 11 10 13 15 16 16 16 17 16 16 16 16 15 15 16 15 16 16 14 14 15 14 14 14 16 15 14 14 14 14 14
14 16 16 18 16 22 15 9 10 12 11 10 11 10 12 14 15 15 16 17 17 16 16 16 16 16 16 16 16 16 16 16 16 16 15 15 15 15 16 16 16 16 16 15
11 14 19 20 20 17 14 12 13 13 14 12 12 13 14 15 15 16 15 15 16 16 16 16 15 15 16 16 16 17 17 17 17 17 17 17 16 16 16 17 18 17 17 17
12 12 18 20 22 21 15 12 10 10 16 13 13 13 14 14 16 19 16 15 15 15 16 16 15 15 16 16 16 17 18 18 19 18 18 17 17 17 18 18 18 18 17 17
15 15 18 18 18 16 13 13 10 16 18 14 15 14 13 17 16 15 15 15 15 16 15 15 15 16 15 16 16 18 19 19 18 18 18 18 17 18 17 18 18 18 17 17
15 16 17 16 18 19 13 12 15 14 14 15 15 15 16 16 16 16 16 16 16 16 16 16 16 16 15 15 16 18 19 18 18 18 19 19 18 18 18 18 18 18 18 18
16 14 15 14 16 12 12 13 12 12 13 14 15 15 15 17 17 17 17 17 16 17 17 16 17 17 16 16 15 17 17 18 18 19 19 19 19 19 19 19 19 19 19 18
13 11 14 14 13 13 13 13 13 13 14 13 14 15 15 17 17 17 17 17 17 17 18 17 17 18 18 17 16 16 16 17 18 19 20 19 18 19 19 19 18 19 20 19
13 12 13 14 13 13 13 13 13 13 14 14 14 15 16 16 17 17 17 17 18 18 17 17 18 18 18 18 18 17 16 15 17 19 19 20 19 19 18 18 18 18 18 17
12 14 15 17 13 13 14 12 13 14 14 14 15 16 16 16 18 18 19 18 18 18 18 18 18 18 19 18 19 18 17 17 17 18 19 19 20 20 20 20 20 17 16 16

GFSCGP_con_lsi_105.txt.gz
Lid_Strength_Index
11 13 15 14 14 14 15 16 16 15 13 15 14 14 12 11 11 11 10 9 9 8 4 3 3 3 3 2 2 2 2 4 0 1 1 2 2 1 1 0 -0 -0 0 1
12 14 12 12 13 15 15 16 16 14 13 14 13 13 11 10 10 9 9 8 6 5 4 4 4 4 4 4 3 2 2 1 1 1 1 1 1 1 1 0 0 -0 -0 0
13 12 11 12 14 15 14 15 15 15 13 12 14 14 12 10 9 7 6 6 5 6 6 6 5 5 5 5 5 5 4 2 1 0 1 1 1 1 2 1 1 0 -0 -0
13 11 12 13 13 13 15 13 13 14 15 16 12 18 13 10 9 8 8 7 6 7 7 6 6 6 6 7 6 6 5 4 3 0 1 2 3 3 2 2 1 1 0 0
14 13 14 14 14 13 14 12 12 12 13 14 14 15 14 11 11 9 8 7 6 7 8 8 7 7 6 6 7 6 6 5 4 2 1 2 2 2 1 1 1 1 1 0
12 11 11 12 11 11 10 11 11 12 12 17 14 14 14 13 11 10 8 7 7 8 8 8 7 7 7 6 6 7 7 6 5 4 2 2 2 2 2 2 2 2 1 2
12 12 11 10 12 11 10 12 15 16 17 17 13 15 13 10 10 9 9 8 8 8 8 8 9 8 8 8 9 9 8 8 6 5 4 1 2 2 2 2 2 2 2 2
16 16 12 10 12 12 12 11 15 19 18 17 13 16 13 9 8 7 7 8 8 8 9 9 9 9 9 10 10 10 10 9 7 7 5 1 2 2 2 1 2 2 2 2
14 15 11 11 10 11 12 13 12 15 14 16 14 12 11 9 9 8 8 8 10 9 10 10 10 10 10 11 11 11 11 10 8 7 7 2 2 2 2 1 1 1 1 1
11 15 12 11 10 11 12 11 15 14 18 19 16 14 13 12 11 9 9 10 11 11 10 11 11 12 11 12 12 12 12 11 9 8 8 3 2 1 1 1 1 1 1 1
11 13 14 12 14 14 14 15 13 12 15 17 18 15 11 11 10 10 10 10 11 11 11 12 12 12 13 13 13 13 12 12 10 10 9 6 2 2 2 2 2 2 1 2
10 12 15 14 12 11 12 12 12 16 17 15 15 16 9 9 9 9 10 10 11 12 12 13 13 13 14 14 14 13 13 13 11 10 8 3 2 2 2 2 3 2 2 2
10 14 17 16 13 12 13 12 11 12 13 16 17 16 9 8 9 9 10 11 11 13 13 14 14 15 15 15 15 14 14 13 12 11 10 8 8 3 2 2 2 2 2 3
9 13 15 18 16 13 15 14 12 13 16 16 15 14 10 9 9 10 10 12 13 14 14 14 15 15 15 15 15 15 14 14 13 11 11 12 11 10 7 1 1 2 2 2
10 15 13 13 13 13 13 13 12 14 13 16 14 14 11 9 9 11 11 13 14 15 15 15 16 15 15 15 15 15 15 14 14 13 13 13 13 13 12 10 7 2 2 3
11 15 13 15 13 13 15 13 13 13 13 13 13 13 8 8 9 11 14 14 15 16 16 16 15 15 15 15 16 16 15 15 14 14 14 13 13 14 14 14 13 12 12 11
13 14 15 19 15 15 17 14 13 12 11 11 14 11 9 11 12 13 14 15 16 16 17 16 15 15 15 16 16 16 16 15 15 15 15 14 14 14 15 15 16 15 15 15
13 14 14 17 15 21 14 9 10 11 12 11 10 10 9 12 13 14 15 15 16 16 15 15 15 15 15 16 16 16 16 16 17 17 16 16 15 15 14 15 16 17 16 16
11 13 15 17 17 15 14 12 12 13 13 11 12 13 13 14 14 16 14 15 16 15 15 15 14 14 15 16 16 16 17 17 17 17 17 17 16 16 16 16 17 17 17 17
11 10 14 17 20 21 15 12 10 10 15 13 12 13 14 14 15 17 15 15 16 14 14 15 15 14 15 15 15 17 18 18 18 18 17 16 17 17 17 17 17 17 17 18
14 14 16 17 18 16 13 12 10 16 17 14 14 13 12 16 15 15 15 15 14 14 14 14 15 16 15 15 15 17 18 18 18 17 17 17 17 17 17 17 17 17 17 18
15 16 17 16 18 19 12 12 15 14 13 14 14 14 16 16 15 15 15 15 15 16 15 15 15 16 16 15 16 17 18 17 17 17 17 17 17 17 16 17 17 17 17 18
15 13 14 14 15 12 12 13 12 12 14 14 15 14 15 16 17 16 16 16 16 16 16 15 16 16 16 15 15 17 17 16 17 17 17 16 16 16 16 16 17 17 16 17
12 11 13 13 13 13 13 12 12 12 13 13 13 14 15 17 16 17 16 16 16 16 16 16 16 16 17 15 15 15 15 15 16 16 16 16 16 17 16 16 16 16 17 17
13 12 13 14 13 13 13 13 13 14 13 14 14 14 15 16 16 16 17 17 16 16 16 16 16 16 17 16 16 15 15 15 16 16 16 16 16 17 17 16 16 16 16 16
12 14 14 15 12 13 14 13 12 13 14 14 15 16 15 16 17 17 17 17 17 17 16 17 16 16 16 16 16 16 15 15 16 17 17 17 17 17 17 17 17 16 16 16

GFSCGP_con_lsi_108.txt.gz
Lid_Strength_Index
8 11 12 10 10 10 10 12 13 11 10 11 12 11 10 8 8 8 8 7 7 5 3 3 2 2 1 1 1 1 1 0 0 1 1 1 2 1 0 -0 -0 -0 -1 -0
10 13 10 9 9 10 11 12 12 11 10 11 11 11 9 8 8 8 7 7 5 4 4 3 2 2 2 1 1 1 1 0 0 0 0 0 0 0 0 -0 -0 -0 -0 -0
11 10 8 10 10 11 11 12 12 12 10 10 11 11 10 9 8 7 5 5 5 5 4 4 3 3 2 2 2 3 2 2 1 -0 0 0 0 0 1 1 1 0 -0 -0
10 8 9 10 11 11 13 10 11 12 13 14 10 15 11 9 9 6 6 5 5 4 4 4 4 4 3 3 2 2 2 2 2 1 1 1 2 2 1 1 1 1 0 0
10 10 11 11 11 10 12 10 11 11 12 12 12 14 11 9 10 7 7 6 5 5 5 5 5 4 4 3 3 3 3 2 2 2 2 2 2 1 1 1 1 1 1 0
10 8 9 10 9 9 9 11 11 11 11 15 13 13 12 10 10 8 7 6 5 5 5 5 5 5 4 4 4 4 4 4 3 4 3 3 2 2 2 1 2 2 1 1
10 10 9 9 10 9 10 11 14 15 15 16 12 13 10 9 8 8 8 6 5 5 5 5 6 6 5 5 5 5 6 7 6 6 5 4 4 1 2 2 2 2 2 2
13 14 10 9 9 10 10 10 13 17 16 14 12 14 10 8 7 7 7 6 6 6 5 6 6 6 6 6 6 7 9 9 8 8 7 5 5 3 1 2 2 2 2 2
13 13 10 10 9 10 10 12 9 13 12 14 13 11 10 8 9 8 7 7 7 7 6 6 6 7 7 7 8 10 10 11 10 9 8 7 6 5 1 1 1 1 1 1
11 14 10 10 9 10 10 10 13 12 17 18 14 13 11 11 10 8 8 8 7 7 7 7 7 7 8 9 10 11 11 12 12 10 9 8 8 5 1 1 2 1 1 1
9 11 13 11 12 12 12 13 12 11 12 15 16 13 10 11 9 9 8 8 7 7 7 7 8 8 9 9 11 12 13 13 12 11 10 9 7 1 1 1 1 1 1 1
10 11 14 13 11 9 10 11 11 13 14 12 13 13 8 8 8 7 8 8 7 7 7 8 8 9 10 11 12 14 14 15 13 12 10 9 7 4 2 2 1 1 2 1
10 12 15 15 12 10 11 10 10 11 11 14 15 12 7 8 8 8 8 8 8 8 8 8 9 10 12 13 14 15 15 14 14 12 11 10 9 9 8 2 2 1 1 2
9 11 13 15 13 11 12 11 11 11 14 13 13 12 9 8 8 8 8 8 8 9 9 10 11 12 13 15 15 15 15 14 14 13 13 12 12 10 10 8 5 2 2 2
10 14 12 11 11 11 12 12 11 12 12 14 13 13 10 8 8 8 8 8 9 10 11 12 13 13 14 15 15 15 15 15 14 15 15 14 12 12 13 12 11 10 7 3
9 13 12 13 11 12 13 12 11 11 11 12 12 12 8 7 8 8 9 9 10 12 14 14 13 13 14 14 15 16 16 16 15 15 16 16 14 13 13 14 13 13 13 12
10 12 14 16 13 13 15 12 12 11 10 11 13 9 7 9 9 9 10 11 13 14 14 14 14 13 14 14 14 15 15 15 16 16 15 15 15 15 15 15 15 15 15 15
12 12 13 15 15 19 12 8 9 10 9 10 10 8 8 9 10 10 10 12 14 14 14 14 14 14 14 14 14 14 15 15 16 17 17 16 16 16 15 15 16 16 17 17
9 11 14 16 15 13 12 11 11 12 13 11 11 10 10 10 10 13 13 13 14 14 13 14 14 13 14 14 15 15 15 15 16 16 16 16 16 16 16 17 17 17 17 18
10 9 12 13 16 18 13 10 9 10 15 12 11 11 12 11 13 16 14 13 14 13 13 14 14 14 14 14 14 15 16 16 16 16 16 15 15 15 16 16 17 17 18 18
13 12 14 14 15 13 12 10 9 16 16 13 12 11 12 14 13 14 13 14 13 13 13 12 13 14 14 14 14 15 16 16 16 15 15 15 15 15 15 15 15 16 17 17
13 14 14 14 16 17 11 11 14 13 13 13 13 12 14 14 14 14 14 13 14 14 13 13 13 14 14 13 14 15 16 15 14 14 15 15 15 15 15 15 16 16 16 17
13 12 13 12 13 11 11 12 11 11 12 13 13 13 14 15 15 14 14 14 14 14 14 13 13 14 14 13 14 15 15 14 13 14 14 15 15 14 14 15 15 16 16 16
11 10 11 12 12 12 11 11 11 11 13 13 13 13 14 15 15 15 14 14 14 14 14 13 14 14 14 13 13 13 14 13 13 14 14 14 14 15 15 14 15 16 16 16
11 10 12 13 12 12 12 12 12 12 12 13 13 14 14 15 15 15 15 15 15 14 14 14 14 14 14 14 14 13 13 13 14 14 14 14 14 14 15 16 15 16 16 16
11 13 12 13 11 11 13 12 11 12 13 13 14 14 14 14 15 15 15 15 15 15 14 14 14 14 14 14 14 13 13 13 14 14 14 14 14 14 14 14 16 16 16 16

GFSCGP_con_lsi_111.txt.gz
Lid_Strength_Index
7 9 11 8 7 8 8 9 9 8 7 8 8 8 8 7 7 7 7 7 6 6 4 3 2 2 1 1 1 1 1 0 0 0 1 1 1 0 0 -0 -0 -0 -0 -1
8 10 8 6 7 8 8 10 10 8 7 8 9 9 8 7 7 6 7 6 6 5 4 3 3 2 2 2 1 1 1 0 0 0 0 0 0 0 0 -0 -0 -0 -0 -0
8 7 6 7 8 9 9 10 10 10 8 7 8 10 9 7 6 6 6 5 4 4 4 4 4 3 2 2 2 2 1 1 1 0 0 0 0 0 1 1 0 0 -0 -0
8 6 7 7 8 8 11 8 9 10 10 12 8 13 9 8 8 7 6 5 4 4 4 4 4 3 3 2 2 2 2 1 1 0 1 1 2 2 1 1 0 0 -0 0
9 8 8 9 9 7 10 8 9 10 11 11 11 12 10 8 8 7 6 5 5 4 4 4 3 3 3 2 2 2 2 2 2 2 1 1 2 1 1 1 1 1 0 0
7 5 6 8 7 7 7 9 10 10 11 15 12 11 11 9 8 7 7 6 5 4 3 3 3 3 3 3 3 3 4 4 3 3 3 4 4 2 2 2 2 1 1 1
8 8 6 7 9 9 9 11 15 15 15 16 11 11 10 8 7 7 7 6 5 4 4 4 4 4 4 4 4 4 5 5 5 5 5 5 5 3 3 2 2 2 1 1
14 16 9 8 9 10 10 11 14 21 18 15 11 13 11 8 7 6 5 5 5 5 4 4 5 5 5 5 5 5 6 7 6 6 6 7 7 6 4 2 1 1 1 1
13 13 7 8 8 9 10 12 9 13 12 14 12 10 9 8 8 7 6 6 5 5 5 5 5 5 5 6 6 6 7 8 8 8 8 9 8 8 6 3 1 1 1 1
9 15 9 9 8 8 9 9 13 11 17 17 14 13 12 12 10 8 7 6 6 5 5 5 5 5 5 6 6 7 8 9 9 9 10 10 9 8 7 5 4 1 1 1
8 10 11 10 10 11 11 12 11 11 12 17 17 14 10 11 9 8 7 6 6 6 6 6 6 6 6 7 7 8 10 10 11 11 12 11 10 8 7 4 3 1 1 1
9 10 14 11 9 9 9 11 10 14 15 13 13 14 8 8 7 6 7 7 6 6 6 6 6 6 7 8 9 10 11 12 13 13 13 12 10 9 7 6 2 1 1 1
9 12 14 13 11 10 12 11 11 11 11 14 15 13 7 7 7 6 6 6 6 6 7 7 7 7 8 9 10 11 12 14 14 15 14 13 11 11 11 9 6 5 1 1
7 10 12 14 13 11 13 11 10 10 14 12 12 11 8 7 7 7 7 7 6 7 8 8 8 8 9 10 11 12 14 14 15 15 14 14 14 13 12 11 10 8 7 2
9 13 11 11 10 11 11 11 10 11 10 13 11 11 9 7 7 7 7 7 7 8 9 9 9 9 10 11 12 13 14 15 15 15 15 16 15 14 13 13 12 12 11 11
9 12 12 12 11 11 12 11 11 10 10 10 10 11 7 7 6 7 8 8 9 10 9 10 10 11 12 13 14 13 14 15 15 15 15 15 15 15 15 14 14 14 14 14
10 11 13 15 13 12 15 12 11 10 9 10 12 9 7 7 8 8 9 9 10 10 10 12 13 13 13 13 13 14 14 14 15 15 15 15 15 16 16 15 15 16 16 15
10 11 11 14 14 18 11 8 8 10 9 8 8 8 8 8 8 9 9 10 11 12 12 14 14 13 13 13 14 13 14 14 14 15 15 15 16 16 16 17 17 17 17 17
8 10 13 15 14 13 12 10 11 12 11 10 9 10 9 10 9 11 10 10 12 13 13 14 14 14 13 14 13 14 15 15 15 15 15 15 15 15 16 17 17 18 18 19
9 9 11 13 16 17 13 9 7 9 14 10 10 10 10 10 11 13 12 12 13 13 13 14 14 13 14 14 13 14 15 15 16 15 15 15 14 15 15 15 15 16 17 18
12 11 13 13 15 13 11 9 8 15 14 11 11 10 10 11 13 13 12 13 12 12 12 12 13 14 14 13 13 14 14 15 15 15 15 15 15 15 15 15 15 15 15 16
12 13 13 13 16 17 10 10 13 12 11 12 11 10 13 13 13 13 13 13 13 13 12 12 13 13 13 13 13 15 15 13 13 13 14 15 15 15 15 15 15 15 15 16
13 11 13 12 13 10 10 11 10 10 11 12 12 12 13 13 14 14 14 14 14 14 13 13 13 13 13 13 13 14 13 12 12 13 13 14 14 14 14 15 15 16 16 16
10 8 10 11 11 11 11 11 11 11 12 12 12 12 13 14 14 14 14 14 14 14 13 13 13 14 13 13 13 12 12 12 12 12 12 12 13 14 15 14 15 16 17 16
9 9 10 12 11 11 11 11 11 12 12 12 12 13 13 14 14 14 14 14 14 13 13 13 13 13 13 13 13 12 12 11 12 13 13 12 12 12 14 16 16 15 16 16
10 11 11 12 10 10 11 11 11 12 13 13 14 14 13 13 14 14 15 14 14 13 13 13 13 13 13 13 13 13 12 12 12 12 12 12 12 12 13 13 14 16 16 16

GFSCGP_con_lsi_117.txt.gz
Lid_Strength_Index
9 13 15 13 11 10 11 12 12 11 9 9 10 10 10 9 9 9 9 9 8 5 4 3 4 4 4 4 4 4 4 4 4 4 5 4 4 6 5 3 3 3 -0 0
12 14 10 9 9 10 10 12 13 11 9 9 10 11 10 8 9 9 9 9 8 5 5 4 4 5 5 5 5 5 5 5 5 5 5 5 4 3 3 1 3 3 3 1
12 11 8 9 10 11 11 12 12 11 10 10 10 11 11 8 7 7 7 6 6 5 5 5 5 6 5 5 6 6 6 6 6 6 6 5 5 5 4 4 3 4 4 3
10 8 9 9 10 9 12 8 9 10 12 16 11 17 11 9 8 7 7 6 6 6 6 6 6 6 6 7 6 6 6 7 6 6 7 8 7 7 6 6 5 4 5 5
11 9 10 10 10 8 10 8 10 10 11 13 12 16 12 9 10 8 8 7 6 6 7 7 7 7 7 7 7 7 7 7 7 8 8 8 8 8 7 6 6 6 4 4
9 6 7 8 7 8 7 9 11 12 13 18 13 14 14 12 10 10 8 7 7 7 7 7 7 7 8 7 7 8 8 8 9 9 9 9 10 9 9 8 8 7 5 4
10 9 7 7 9 9 10 13 18 19 19 18 11 14 12 11 10 9 8 8 8 8 8 8 8 9 8 8 8 8 9 9 9 10 10 10 10 9 9 9 8 8 7 6
14 16 10 8 10 12 11 12 18 22 21 18 12 17 16 10 8 8 8 8 8 9 9 9 9 9 8 8 9 10 10 10 10 11 11 10 10 10 10 9 9 8 7 6
13 14 8 7 8 9 11 14 10 15 15 18 15 14 11 9 10 9 10 9 9 9 9 9 9 9 10 11 11 11 11 11 11 12 12 12 11 10 10 9 9 8 7 6
10 14 10 9 9 9 10 10 15 16 21 21 17 15 17 13 11 9 10 10 10 10 10 10 10 10 11 11 11 11 11 12 12 12 12 11 11 10 10 10 9 8 8 6
10 12 13 10 11 13 12 13 12 13 15 20 21 17 11 12 10 9 9 9 10 11 11 10 10 10 11 11 11 11 11 12 12 12 12 12 11 11 10 10 10 9 8 7
10 12 17 14 9 8 10 11 11 16 17 15 16 16 9 9 8 8 9 10 11 10 10 11 11 11 11 11 11 12 12 12 12 12 12 11 11 11 11 11 11 10 10 9
10 14 17 15 12 10 11 11 10 11 12 16 18 17 8 8 7 8 9 10 10 10 11 12 12 12 12 12 12 12 13 12 12 12 12 12 12 12 12 12 12 12 12 11
8 12 14 17 14 12 13 11 11 12 16 15 14 13 9 9 9 9 9 11 11 11 11 12 12 12 12 12 12 12 13 12 12 12 12 12 13 13 13 13 14 14 13 13
11 15 13 12 11 10 12 12 12 12 12 15 13 13 10 9 9 10 9 10 11 12 12 12 12 13 13 13 13 13 13 12 12 12 13 13 13 14 14 15 15 15 15 14
11 15 14 15 12 12 13 12 12 12 12 12 12 12 9 8 9 10 11 11 11 12 12 12 12 13 13 13 13 13 13 13 13 14 14 14 14 14 15 15 16 16 16 16
13 14 16 17 14 14 17 14 12 12 10 11 17 12 10 11 12 11 12 12 12 12 13 13 13 13 13 13 13 14 14 13 14 15 15 15 15 15 15 15 16 17 17 17
13 14 14 16 16 21 13 10 11 12 11 10 10 10 11 12 12 12 11 13 13 13 13 14 14 13 12 13 13 13 14 14 15 16 15 15 15 15 15 15 16 17 17 18
10 13 16 18 18 15 13 12 14 15 14 11 11 11 12 12 12 12 11 11 13 14 13 13 12 13 14 14 13 14 14 15 16 16 17 16 16 17 16 17 17 17 18 18
11 12 16 17 19 24 14 10 8 10 18 11 11 11 10 11 15 16 12 12 12 12 12 13 13 13 13 13 13 14 15 14 16 17 17 17 16 18 18 17 18 17 17 18
15 15 16 17 19 15 11 10 8 18 18 11 11 11 10 13 14 14 13 13 12 12 12 12 13 13 13 13 13 15 15 15 15 15 17 17 17 17 18 18 17 18 19 19
14 15 17 18 19 19 11 11 14 13 11 12 12 13 14 14 14 14 13 13 13 13 12 12 13 14 13 14 15 16 15 14 14 15 16 16 16 16 17 18 18 18 19 20
16 14 14 15 17 11 10 12 10 10 12 12 12 13 13 14 14 14 14 13 13 13 13 13 14 14 14 14 14 16 15 14 13 13 14 16 15 16 16 18 18 18 18 18
11 9 13 13 12 12 11 11 11 11 12 12 12 12 13 14 14 14 14 14 14 13 14 14 14 15 16 14 14 14 13 12 13 13 13 13 15 16 16 16 17 17 18 19
11 10 12 13 12 12 11 11 12 12 12 12 12 13 13 13 14 14 14 14 14 14 14 14 15 16 15 14 14 13 13 12 13 13 13 13 14 14 16 16 16 16 16 16
12 13 12 15 12 12 12 11 11 13 13 13 13 14 13 14 14 14 14 14 14 14 14 15 15 15 15 15 15 14 13 13 13 14 14 14 14 14 14 16 16 13 14 14

GFSCGP_con_lsi_120.txt.gz
Lid_Strength_Index
10 14 16 13 12 12 13 13 14 12 10 11 11 12 11 10 10 10 9 10 8 6 4 5 5 5 5 5 5 5 5 5 6 6 6 6 6 5 6 5 4 4 2 2
12 15 12 11 11 11 12 13 13 11 10 10 12 13 12 11 10 9 9 9 6 6 6 6 6 6 6 6 6 6 6 6 7 6 6 7 7 5 5 5 6 6 6 5
14 12 10 11 11 12 12 12 12 12 11 11 12 13 12 9 7 6 6 6 5 6 7 7 7 8 7 7 7 6 7 7 8 8 8 8 8 7 7 8 7 6 6 5
12 9 9 10 11 10 14 10 10 11 13 16 11 17 12 9 9 7 7 7 6 7 7 8 8 8 9 8 8 8 8 8 8 9 9 10 10 10 9 9 8 8 7 7
12 11 11 11 10 9 11 8 10 11 13 15 13 16 12 10 10 10 8 8 8 8 8 9 8 9 9 9 9 9 9 9 9 10 10 11 11 11 10 9 9 9 8 7
10 7 9 9 8 8 7 9 11 13 14 18 13 15 15 14 12 10 8 8 8 9 8 9 8 9 10 10 10 10 10 11 10 10 11 11 12 11 11 11 10 9 9 8
10 10 8 7 10 9 10 13 19 19 19 19 12 15 15 11 10 9 10 9 9 9 9 9 10 11 11 11 12 11 12 12 11 12 12 12 12 12 12 11 10 10 10 9
15 16 10 8 10 12 12 13 18 22 21 18 13 17 15 9 8 7 8 9 9 9 9 10 11 11 12 12 12 13 12 13 12 12 12 12 12 12 12 11 10 10 10 9
14 14 9 9 8 9 12 14 11 15 16 18 16 15 11 9 9 10 10 10 10 9 10 11 11 12 12 13 13 13 13 13 12 13 13 13 12 12 12 11 10 10 10 9
11 14 10 9 9 10 10 10 16 16 21 22 17 16 17 13 11 9 10 11 10 10 10 11 11 12 12 13 14 14 13 13 13 13 12 12 12 12 11 11 11 10 10 9
10 12 13 10 12 13 13 14 13 13 15 20 21 17 11 12 10 10 10 10 11 11 12 12 12 12 12 13 14 14 13 13 13 13 12 12 12 11 11 11 11 10 10 10
10 13 16 14 9 10 11 13 12 17 17 15 17 17 9 10 9 8 10 11 11 11 12 12 12 13 13 14 14 14 13 13 13 12 11 12 11 11 12 12 12 11 11 10
10 13 17 15 12 11 12 11 11 11 12 16 18 17 9 8 8 9 11 11 11 12 13 13 13 13 14 13 14 14 14 14 13 12 12 12 12 12 12 13 12 12 12 12
8 12 15 16 15 12 14 12 11 12 16 16 15 14 11 10 10 11 11 12 12 13 13 13 14 14 14 14 14 14 14 13 12 12 13 13 13 12 12 13 13 13 13 13
11 15 13 12 11 11 13 13 12 13 12 15 14 14 12 11 11 11 11 12 13 13 13 13 14 14 14 14 14 13 13 13 13 13 13 13 13 13 13 14 14 14 14 15
11 15 15 16 13 13 14 12 12 13 12 12 12 14 11 11 11 12 12 12 13 14 14 14 14 14 14 14 14 13 14 13 13 14 14 15 15 14 15 15 15 16 16 16
13 14 17 18 15 16 18 15 13 13 11 12 16 12 12 13 12 13 14 14 14 13 13 14 14 14 14 14 13 13 13 13 15 15 16 16 16 17 16 16 16 17 17 17
13 14 15 17 17 21 14 11 11 13 13 11 11 11 12 12 12 12 12 13 14 14 14 14 14 14 14 13 13 13 13 15 16 17 17 16 17 18 17 17 17 17 18 18
11 14 18 20 19 16 14 14 15 16 15 12 11 12 12 13 13 13 12 12 14 15 14 14 14 15 14 13 13 14 14 14 16 17 18 17 18 19 18 18 19 18 19 19
12 13 17 18 20 26 19 11 9 11 18 12 12 11 12 14 18 16 12 12 13 16 15 14 13 12 12 13 13 14 14 14 16 16 17 17 18 19 20 19 19 19 19 20
16 16 18 19 21 17 12 11 9 17 18 13 12 12 10 13 15 14 13 13 14 15 13 12 13 14 14 13 13 15 15 16 16 16 16 16 16 17 18 18 19 19 19 20
16 17 19 19 21 20 12 11 14 14 13 13 14 13 13 14 14 14 14 13 13 13 12 12 13 14 14 14 14 16 16 15 14 15 15 15 16 16 16 17 17 18 18 18
17 15 17 15 18 13 12 14 11 10 12 12 15 14 13 14 15 14 14 14 13 13 13 13 14 14 14 14 14 16 15 14 14 14 14 16 15 16 16 17 17 17 17 18
12 10 15 14 13 12 11 11 11 13 13 13 13 13 14 15 15 14 14 14 14 13 14 14 15 15 16 15 15 14 13 13 14 14 14 14 15 16 16 16 16 17 17 17
12 10 12 13 12 11 11 12 12 12 13 13 13 14 14 14 15 14 14 14 14 14 14 15 15 16 16 15 15 14 13 13 14 14 14 14 14 15 16 16 16 17 16 15
13 11 14 17 12 13 13 11 12 13 14 13 14 14 14 14 14 14 14 14 14 15 15 16 16 16 16 15 16 15 14 14 14 14 14 15 15 16 15 16 17 14 14 14

GFSCGP_con_lsi_123.txt.gz
Lid_Strength_Index
10 13 16 13 13 13 14 15 15 14 11 12 13 13 11 12 11 11 11 10 7 6 6 7 7 7 7 7 7 7 7 7 7 7 7 7 8 7 6 4 5 5 6 6
13 15 12 11 11 13 14 15 15 13 11 12 13 13 12 12 10 10 10 10 7 7 7 8 8 8 9 8 8 8 8 8 8 7 8 8 8 7 7 7 7 5 6 5
14 12 10 11 12 13 13 14 14 13 12 12 13 14 13 10 9 8 7 7 6 7 9 8 9 9 10 10 10 9 9 9 9 8 8 8 8 8 8 9 9 8 7 7
13 10 11 12 13 12 15 11 12 12 14 16 13 17 13 12 10 9 9 9 9 9 9 9 10 10 10 10 10 10 10 10 10 10 10 11 11 11 10 10 10 9 9 8
12 11 11 12 11 10 12 9 10 11 14 15 14 16 15 11 12 10 10 10 10 10 9 10 10 11 11 10 11 11 11 11 11 11 12 12 12 12 11 11 11 11 10 9
11 9 10 10 9 9 8 10 11 12 14 18 14 15 16 14 12 10 10 9 9 10 10 10 10 9 10 11 11 11 12 12 12 12 13 13 13 13 13 12 12 11 10 10
12 11 9 8 11 9 10 13 18 20 19 19 13 15 15 11 9 10 11 10 9 9 10 10 10 11 11 12 12 12 13 13 13 13 13 13 13 13 13 13 12 12 11 10
15 16 11 9 10 12 12 13 18 22 21 19 13 17 15 9 8 8 8 8 8 9 10 10 11 12 12 12 12 13 14 14 13 13 13 12 12 12 12 11 12 11 10 10
15 15 10 9 9 9 12 15 12 16 15 18 16 14 11 9 9 9 8 8 9 9 10 10 11 11 12 13 13 13 14 14 13 13 13 13 13 12 12 11 11 11 10 10
11 15 11 9 10 10 11 10 16 16 21 22 18 16 17 13 11 9 9 8 8 9 10 11 12 12 13 13 13 13 13 14 14 13 13 13 13 12 11 11 11 11 11 11
11 13 13 10 12 13 13 14 13 14 16 20 21 17 11 11 10 10 8 9 10 11 12 12 13 13 12 13 14 14 14 14 13 13 12 13 12 12 12 13 12 12 12 12
9 12 16 13 10 11 12 13 13 17 17 16 17 17 9 9 9 8 9 11 12 12 13 13 13 13 13 14 13 14 14 14 13 13 13 12 12 12 13 12 12 12 13 12
10 14 18 15 13 11 12 12 11 12 14 16 18 17 9 9 9 9 12 12 12 13 13 14 14 13 14 14 13 13 13 13 13 13 13 13 13 13 13 13 13 13 13 12
8 13 14 17 14 12 14 12 12 12 17 16 15 15 11 10 11 11 12 13 13 13 13 13 13 13 13 13 13 13 13 13 13 13 14 15 14 13 14 13 13 14 14 14
11 14 13 13 12 11 13 13 12 13 13 16 14 14 13 11 11 12 12 12 13 13 13 13 14 13 13 13 13 13 13 13 14 15 15 15 15 15 14 15 14 15 15 15
11 15 14 15 12 12 13 13 13 12 12 13 13 14 12 12 12 12 12 13 13 13 14 14 14 14 14 14 14 14 15 15 15 16 16 15 15 16 16 16 16 16 17 17
12 14 15 17 14 15 18 15 13 13 12 13 18 14 12 13 14 14 14 13 13 14 14 14 14 13 13 14 13 15 17 16 16 17 16 17 17 17 18 17 18 18 18 18
13 13 14 16 16 21 16 13 12 13 13 12 12 13 13 13 13 13 13 13 13 13 14 14 14 14 15 17 16 15 15 15 17 17 18 18 18 19 19 19 19 19 19 19
10 13 16 18 19 17 16 15 17 17 16 13 13 13 12 13 13 14 12 12 15 16 15 14 14 16 16 14 13 13 13 15 17 18 18 18 19 19 19 20 20 19 19 19
11 11 15 18 21 26 20 13 11 13 19 13 12 13 13 13 16 18 13 14 15 15 14 13 13 13 12 12 12 14 14 15 17 17 17 17 17 18 19 19 20 19 19 19
14 15 16 18 20 18 14 12 11 19 18 13 12 12 12 15 15 14 14 16 15 13 13 12 12 13 13 13 13 15 15 16 16 16 16 16 16 17 17 17 17 17 18 18
15 16 18 19 21 20 12 12 15 15 14 13 14 16 12 13 14 14 15 15 14 13 12 12 13 14 13 13 14 15 16 16 15 15 15 16 16 16 16 17 16 16 17 18
17 16 18 16 17 14 12 14 12 12 13 12 14 16 13 14 15 14 14 13 13 13 13 13 14 14 14 14 14 16 16 14 14 14 15 16 16 15 16 17 17 16 16 18
13 12 16 14 14 14 12 12 12 13 13 15 14 15 15 16 15 15 14 14 14 14 14 14 14 15 15 15 15 15 13 13 14 14 14 14 15 16 16 16 16 16 16 17
13 11 13 13 13 12 12 11 11 12 12 13 15 15 16 15 15 15 14 14 14 14 14 14 15 16 16 16 15 14 14 13 14 14 14 15 15 15 16 17 17 16 16 15
13 13 14 16 11 13 13 12 12 13 13 14 15 15 15 14 15 14 15 14 14 15 15 16 16 16 16 16 16 15 14 14 15 15 15 16 16 17 17 17 18 15 14 14

GFSCGP_con_lsi_126.txt.gz
Lid_Strength_Index
10 13 15 12 14 13 14 15 16 15 12 14 14 14 13 11 12 12 11 11 9 9 9 9 10 10 10 10 10 10 11 11 11 10 10 8 8 6 6 7 5 6 6 5
13 15 12 12 12 13 14 16 16 14 12 13 14 14 12 12 11 10 9 9 10 10 10 10 10 11 11 11 11 10 11 10 10 10 10 9 9 7 7 8 8 7 7 6
14 12 11 12 13 14 14 15 15 15 13 13 14 15 14 11 10 10 10 10 11 11 11 11 11 12 12 12 12 12 12 12 11 11 11 11 10 9 9 10 9 9 8 7
13 11 12 13 13 13 16 12 12 13 14 17 14 19 15 12 12 11 11 11 11 10 10 10 10 10 11 12 11 11 11 11 11 12 12 13 13 13 11 10 10 10 9 8
13 11 12 13 12 11 13 10 11 12 14 17 16 18 17 12 14 12 12 11 10 10 10 10 10 10 10 11 11 12 12 12 12 12 12 13 13 13 12 11 11 10 9 9
11 10 10 10 9 9 9 11 12 14 15 19 15 15 18 14 12 12 10 10 9 8 8 9 9 9 11 11 11 12 12 12 12 12 12 12 13 13 13 12 12 11 10 10
13 11 10 9 11 9 10 13 19 20 19 20 15 16 15 12 10 10 10 10 8 8 8 9 9 10 11 11 12 12 12 13 12 12 12 13 13 13 13 12 12 12 11 10
16 16 11 9 10 12 12 13 18 22 21 19 14 17 15 10 8 8 8 8 8 9 8 9 10 11 12 12 12 13 13 13 13 12 13 12 12 13 13 12 12 11 11 10
15 15 10 9 9 9 12 15 12 16 15 18 16 14 11 9 9 9 8 8 8 8 9 10 11 12 13 13 13 13 13 13 13 13 13 12 13 13 13 13 12 12 11 10
11 15 11 10 10 11 11 10 16 16 21 22 18 17 16 13 11 9 9 8 7 8 10 11 12 12 12 13 13 13 13 13 13 13 13 13 13 13 13 13 13 12 12 11
11 12 13 11 12 14 13 14 13 14 15 20 21 17 12 11 10 10 9 8 8 10 13 13 13 13 13 13 12 13 13 13 13 13 14 13 13 13 12 12 12 12 12 12
10 13 16 14 10 10 12 12 12 17 18 16 17 16 10 10 9 8 8 11 12 13 14 14 14 13 13 13 13 13 13 13 13 13 13 14 13 13 13 13 13 13 13 13
10 13 17 16 14 12 13 12 12 12 14 16 19 16 9 9 9 8 12 12 13 13 14 14 14 13 13 13 13 13 13 13 13 13 14 14 15 14 14 14 14 13 14 14
8 12 14 17 14 13 14 12 12 13 18 16 15 15 12 10 10 12 13 13 13 13 13 14 14 13 13 13 13 14 14 13 13 14 14 15 15 15 14 14 14 15 14 14
10 14 13 13 12 12 13 13 12 13 13 15 14 14 13 11 11 12 13 13 13 13 13 13 14 14 14 14 15 15 15 15 15 15 15 16 15 15 15 15 15 15 16 16
11 14 14 14 12 12 13 13 12 12 12 13 13 14 13 13 13 13 13 13 13 13 13 13 14 14 14 14 14 14 15 16 15 16 17 16 16 16 17 17 17 17 17 17
12 13 14 17 14 14 16 14 13 12 13 14 18 15 14 14 13 14 14 13 13 13 13 13 14 14 15 15 14 14 14 15 16 17 16 17 17 18 18 18 18 18 18 17
12 13 13 16 15 20 15 13 12 13 14 14 14 14 14 14 14 14 13 13 13 13 13 14 15 15 15 15 14 13 14 15 16 16 17 17 18 18 18 19 19 19 18 18
9 12 15 17 18 16 15 14 16 16 16 14 14 14 14 13 13 13 12 12 13 14 18 16 14 15 14 13 12 12 13 14 15 17 17 17 18 18 18 19 19 19 19 18
10 10 13 17 19 24 19 13 12 14 20 14 13 13 13 13 16 20 14 14 16 16 15 14 14 13 12 12 11 12 13 15 16 17 17 17 17 18 18 17 17 18 18 18
14 13 15 17 19 17 14 12 12 20 19 14 13 12 13 15 16 18 15 17 17 15 14 12 13 13 12 12 12 14 14 15 15 16 16 16 16 16 17 16 16 17 18 18
14 15 16 16 18 20 12 13 16 16 14 13 14 15 13 14 15 15 15 16 15 14 13 13 13 13 13 13 13 15 15 14 15 15 16 16 16 16 16 16 16 17 18 18
16 13 16 14 15 14 13 15 13 12 13 13 14 15 14 15 15 15 16 15 14 14 14 13 13 14 13 13 13 15 15 14 14 14 15 15 16 16 16 17 17 17 17 18
12 11 14 14 15 14 13 13 12 13 12 15 15 15 13 15 15 15 14 15 15 15 14 14 14 14 15 14 13 14 14 14 14 14 15 15 15 17 17 16 17 17 17 18
12 12 14 14 14 13 13 12 13 12 12 14 16 16 17 16 16 15 15 15 15 15 14 14 15 15 15 15 15 15 14 13 14 15 15 15 15 16 18 19 17 17 17 16
13 13 15 15 12 12 12 13 12 12 13 14 15 16 16 15 16 15 16 15 15 15 15 15 15 16 16 16 16 15 14 14 15 15 16 16 16 17 17 19 19 16 15 15

GFSCGP_con_lsi_132.txt.gz
Lid_Strength_Index
7 9 10 9 9 9 10 11 11 9 9 10 10 9 8 7 6 6 6 6 7 8 7 7 7 6 6 6 6 6 6 6 6 6 6 5 5 3 3 5 4 4 3 2
9 10 8 8 8 9 10 11 11 10 10 10 10 10 8 8 7 7 6 6 7 7 7 7 6 6 6 6 6 6 6 6 6 6 6 6 6 5 4 5 4 4 3 3
10 9 8 8 9 10 10 11 11 12 10 9 10 10 10 9 7 7 7 6 6 6 6 6 6 6 7 7 7 7 7 7 6 6 5 5 5 5 5 5 5 4 4 3
10 8 9 10 11 10 12 9 10 11 11 13 10 15 10 9 8 8 7 7 6 6 7 6 6 6 6 6 6 6 6 6 6 5 5 6 6 7 6 6 5 5 4 5
11 10 10 10 10 9 11 9 10 10 11 11 11 13 11 9 9 8 7 6 6 6 6 6 6 5 5 6 6 6 6 6 6 5 5 6 6 6 6 6 6 5 5 5
9 7 8 9 8 8 8 9 9 9 10 14 12 12 11 10 9 7 6 6 5 5 5 5 5 5 5 6 6 5 6 6 6 6 6 6 7 7 7 7 8 7 7 6
10 9 8 7 9 7 8 10 13 14 15 15 11 12 11 8 7 6 6 6 4 4 4 4 5 5 6 6 6 6 6 7 6 7 7 7 8 8 9 9 9 9 8 8
11 13 8 6 8 9 9 10 13 17 16 14 11 14 10 7 6 5 5 5 4 4 4 5 6 6 6 7 7 7 7 7 7 7 8 9 9 9 9 10 10 10 10 10
11 11 7 7 7 7 10 12 8 12 11 14 12 10 9 7 7 7 6 5 5 5 6 5 6 7 7 7 7 7 8 8 8 8 9 9 9 10 11 11 10 10 11 11
9 12 8 7 6 7 8 7 13 12 18 17 13 12 11 10 9 8 7 6 5 5 6 6 7 8 7 7 7 7 7 8 8 8 9 9 9 10 10 10 11 11 11 11
7 10 10 8 9 9 10 11 10 10 12 17 17 13 8 8 7 7 6 6 5 5 6 8 8 8 8 8 8 8 8 9 9 9 8 9 10 10 10 10 11 11 11 12
8 9 12 10 7 7 8 9 9 15 15 15 15 14 7 7 6 6 6 5 4 5 7 8 9 8 8 8 8 8 8 9 9 9 9 9 10 10 10 11 11 11 12 12
7 9 13 12 9 8 10 9 9 11 13 15 17 14 7 7 7 6 6 5 5 6 8 9 9 9 9 9 9 9 9 9 9 9 10 9 10 11 12 12 11 12 12 12
6 10 11 13 11 9 12 10 9 11 15 14 13 11 8 8 7 7 6 5 6 7 9 9 9 9 9 10 10 10 11 10 10 10 11 11 11 11 12 12 12 12 12 12
7 12 10 9 9 9 10 10 10 11 11 14 12 11 8 7 6 6 5 5 7 9 9 9 10 10 10 10 10 11 11 11 11 11 12 12 12 11 11 12 12 12 12 13
7 12 10 11 9 9 11 9 9 9 10 10 10 10 6 6 6 6 6 7 8 10 10 11 11 10 10 11 10 11 11 11 11 12 13 13 12 12 13 13 13 12 12 13
9 11 12 15 10 11 14 10 9 9 8 9 13 9 6 7 7 7 7 8 9 11 11 11 10 10 10 10 10 11 11 11 11 12 13 13 13 13 13 13 13 13 14 14
9 10 11 14 12 19 10 7 8 9 8 8 8 7 7 7 7 8 7 8 10 10 10 10 10 10 10 10 10 11 11 12 12 12 12 13 13 14 13 14 14 14 13 14
7 9 13 15 14 11 10 9 11 11 10 7 8 7 8 9 9 11 9 9 10 10 10 11 10 10 11 11 11 12 12 12 12 12 12 12 13 14 14 15 15 14 14 14
7 7 12 12 15 17 11 8 7 7 13 6 7 7 10 10 11 9 10 10 11 11 11 11 11 11 11 11 10 11 12 12 12 12 12 12 12 13 14 14 14 13 13 13
12 13 15 14 15 12 7 7 7 14 12 8 7 8 9 10 10 11 10 11 11 12 12 11 11 12 11 10 10 12 12 13 12 12 12 13 12 13 12 12 12 12 12 13
11 13 14 14 16 17 7 9 11 9 8 8 7 8 8 12 13 12 12 12 12 12 12 11 11 12 11 11 11 12 12 11 11 12 13 13 13 12 11 12 12 12 12 13
13 11 12 11 11 8 7 8 7 7 8 8 7 8 8 12 12 12 12 12 12 12 12 11 11 12 11 11 11 12 12 11 11 12 13 13 13 12 12 12 12 12 12 13
8 7 10 10 9 9 8 8 8 8 8 8 8 8 10 11 11 12 12 12 12 12 12 11 12 12 12 11 11 11 11 11 11 12 13 13 13 13 13 12 12 13 13 13
8 7 9 9 9 10 10 8 8 9 9 10 10 9 9 10 11 12 12 12 12 12 12 11 11 12 11 11 11 11 11 11 13 13 13 13 13 13 13 14 13 13 14 14
7 9 11 11 8 8 7 7 8 10 11 10 10 10 9 10 12 11 12 12 12 12 12 12 12 12 12 12 12 12 11 12 13 14 13 13 13 14 14 14 14 15 15 15

GFSCGP_con_lsi_135.txt.gz
Lid_Strength_Index
6 8 10 8 7 8 8 9 10 8 7 8 9 9 8 6 6 6 5 5 5 6 6 5 5 4 4 4 5 5 5 4 4 4 4 4 4 3 4 3 3 4 4 3
8 9 8 7 7 8 9 10 10 8 7 9 9 9 7 6 6 6 5 5 5 6 6 5 5 4 5 5 5 5 5 5 5 4 4 4 4 3 3 4 4 4 4 4
9 8 8 8 8 9 9 10 10 10 9 8 9 10 8 7 6 6 5 5 5 5 5 5 5 5 5 5 5 5 5 5 5 4 4 4 3 3 4 4 4 4 4 3
9 7 8 9 9 9 11 8 10 10 11 13 8 13 9 7 8 7 6 5 5 5 5 5 5 5 5 5 4 4 5 5 5 4 4 4 5 5 4 4 4 4 4 4
10 10 10 10 10 8 10 9 9 10 11 11 11 11 10 7 8 7 6 5 5 4 4 5 4 4 5 5 5 4 4 5 4 4 4 5 5 5 4 4 4 4 4 4
9 7 8 8 8 8 8 9 9 9 10 14 11 11 11 9 8 7 6 5 4 4 4 3 3 4 5 4 4 4 4 5 4 5 5 5 6 6 6 6 6 6 5 5
9 9 8 7 9 8 8 10 13 13 14 15 9 11 10 7 6 6 6 5 4 4 3 3 3 4 5 5 5 5 5 5 5 5 6 6 6 6 7 7 8 8 8 8
12 12 9 7 9 9 8 9 13 17 15 13 10 13 10 6 5 5 5 4 4 4 4 3 3 4 5 5 5 5 5 6 6 6 6 6 6 7 7 8 9 9 10 10
11 11 7 7 7 7 9 10 8 12 11 14 12 9 7 6 6 6 5 5 5 4 4 3 4 5 5 5 5 5 6 6 6 7 7 7 7 8 8 8 9 9 10 10
8 11 7 7 6 6 7 7 12 12 19 17 13 12 11 10 8 7 6 6 5 4 4 4 4 5 5 5 5 6 6 6 7 6 6 7 7 8 8 8 10 10 11 10
7 9 10 7 9 9 9 10 9 9 11 16 16 13 7 8 7 7 6 5 5 5 4 4 4 5 6 6 6 6 7 7 7 7 6 7 8 8 9 9 10 10 10 10
7 9 12 10 7 6 7 9 9 14 15 12 15 15 6 7 6 5 5 5 4 4 4 4 5 6 6 6 6 7 7 7 8 7 7 8 8 8 9 10 10 10 10 10
7 10 13 12 9 7 9 8 8 9 9 14 16 15 6 6 6 5 5 5 4 4 4 5 6 6 6 7 8 8 8 8 8 8 8 8 9 9 10 10 10 10 10 11
6 9 11 13 11 9 10 10 9 10 16 15 14 12 8 7 8 7 6 5 5 4 5 6 6 6 7 8 8 9 9 9 9 9 10 10 10 10 10 10 10 10 10 11
7 11 9 9 9 9 9 9 9 10 10 13 11 11 9 7 7 6 6 6 5 5 6 6 7 7 8 9 9 9 10 9 9 10 10 10 10 10 10 11 10 10 10 11
6 11 9 10 9 9 10 9 9 9 9 9 9 10 6 5 5 6 5 5 6 5 6 7 8 8 10 10 10 10 9 9 9 10 11 11 11 11 12 11 11 11 11 12
8 10 11 14 10 10 12 10 9 9 8 8 11 8 6 6 8 7 6 5 5 6 7 9 9 10 10 9 9 10 10 9 10 11 11 11 11 12 12 11 11 12 12 13
8 9 10 14 11 18 10 7 7 8 8 7 7 7 6 6 6 5 4 5 6 7 9 10 10 10 9 9 9 10 10 11 11 11 12 11 11 12 12 12 12 12 12 13
6 9 12 15 14 11 9 8 10 11 9 6 7 6 5 6 6 7 6 5 7 9 10 10 9 10 9 10 10 11 11 11 11 12 11 11 11 11 12 12 13 12 12 12
7 7 11 13 16 17 11 7 5 6 13 6 6 6 6 6 10 8 8 8 10 11 11 10 10 10 11 10 10 12 12 12 12 12 11 10 11 11 12 12 12 12 11 12
11 11 14 14 15 12 7 6 5 13 11 6 5 5 6 8 9 9 9 11 11 11 10 10 10 11 11 11 10 12 12 13 12 12 11 11 10 11 11 11 11 11 10 10
11 12 13 13 15 17 6 7 10 8 6 6 6 6 7 10 11 11 12 12 11 11 10 10 11 12 11 10 11 12 13 12 12 12 12 12 11 11 10 10 10 10 10 11
12 10 12 10 11 7 6 6 5 5 6 6 6 6 8 11 12 12 12 12 11 11 10 10 11 11 11 10 10 12 12 11 11 11 12 12 11 11 10 11 11 11 11 12
7 6 10 9 7 6 6 5 5 6 6 6 5 6 9 11 12 12 11 11 10 10 10 10 11 11 11 10 10 11 11 11 11 12 12 12 12 12 11 11 12 13 13 13
7 7 9 9 7 7 6 5 5 7 6 7 6 7 10 11 11 11 11 10 11 11 11 11 11 11 11 10 10 10 10 10 12 12 12 13 13 13 13 14 13 14 15 15
6 8 10 11 7 7 6 5 5 6 8 8 9 9 9 9 10 10 10 10 11 12 11 11 11 11 11 11 11 10 10 11 12 13 13 12 12 12 12 13 14 15 15 16

GFSCGP_con_lsi_138.txt.gz
Lid_Strength_Index
7 9 11 9 8 8 8 9 10 8 7 8 8 8 8 6 6 6 6 6 5 6 5 5 4 4 4 5 5 5 5 5 5 5 5 5 5 4 3 4 3 4 4 4
9 11 8 7 8 9 8 10 10 9 7 8 8 9 8 7 6 6 5 5 5 6 6 5 5 5 5 5 5 5 5 5 5 5 5 4 4 4 4 4 3 4 4 4
10 9 7 8 8 9 9 10 10 10 9 8 9 10 9 7 6 6 5 5 5 6 6 6 5 5 4 5 5 6 6 6 6 5 5 5 4 4 5 5 5 5 4 4
9 7 9 9 10 9 11 8 9 10 11 13 9 14 10 8 7 7 6 5 5 5 5 5 5 5 5 5 5 5 5 6 6 5 6 6 7 7 6 6 6 5 5 4
11 10 10 10 10 8 11 8 10 10 12 12 12 13 12 8 8 8 7 6 5 5 5 5 5 5 5 5 5 5 5 5 5 5 5 6 7 7 6 6 7 7 6 5
10 8 8 9 8 8 8 10 10 10 11 15 12 12 12 10 8 7 6 6 5 5 4 4 4 5 5 5 4 4 5 6 5 6 6 7 7 7 7 8 8 8 8 8
11 10 8 8 10 8 9 11 15 16 15 16 10 11 10 8 7 6 6 6 5 4 4 4 5 5 5 5 5 5 6 6 6 6 6 7 7 8 8 9 9 9 9 9
13 14 10 8 10 10 10 10 14 18 17 14 10 13 11 7 5 5 5 5 5 4 4 4 4 4 5 5 5 5 6 6 6 6 7 7 7 8 9 9 9 10 10 9
12 11 7 8 7 8 10 11 9 12 12 15 13 11 8 6 6 6 5 5 5 5 5 4 4 4 5 5 6 6 6 6 6 6 7 7 8 8 9 9 9 10 10 9
9 12 8 7 7 7 8 7 12 12 19 19 14 12 12 10 9 7 6 6 5 5 5 4 5 5 5 5 6 6 6 7 7 6 7 8 8 9 9 9 10 10 10 10
8 10 10 8 10 10 9 10 10 10 12 17 17 14 9 10 8 8 7 7 6 5 5 4 5 5 5 5 6 6 6 7 7 7 7 8 9 9 9 10 10 10 10 10
8 10 13 11 7 7 8 9 9 15 16 15 16 16 7 8 7 7 7 6 5 5 5 5 5 6 6 6 6 6 7 7 7 7 8 8 9 9 10 10 10 10 11 10
7 11 15 14 11 9 10 9 9 9 10 14 16 14 6 6 7 6 7 7 5 5 5 5 6 6 6 6 7 7 8 8 8 9 9 9 10 10 10 10 10 10 11 11
6 9 12 14 13 10 11 10 9 10 15 14 14 12 9 8 7 7 6 6 6 6 5 6 6 6 6 7 8 9 9 9 9 10 10 10 10 10 10 10 10 10 11 12
8 12 11 11 10 10 10 10 9 10 10 14 12 11 9 7 7 7 6 6 6 6 6 7 6 7 7 8 9 10 10 10 10 11 11 10 10 10 10 10 10 11 11 12
7 12 10 11 9 9 11 10 9 9 9 10 9 10 6 6 5 6 6 6 7 6 6 6 7 7 8 9 10 10 11 10 10 11 12 12 11 11 11 11 11 11 11 12
9 11 12 14 10 10 14 11 10 9 8 9 11 8 6 7 7 6 6 6 6 6 6 7 8 9 10 10 10 11 11 10 11 11 12 12 12 13 13 11 11 12 13 13
9 10 11 14 13 19 11 7 7 8 8 7 7 7 6 6 6 6 5 6 6 6 8 8 9 10 10 11 11 10 10 11 11 12 13 12 12 14 12 13 12 13 12 13
7 9 13 15 15 12 10 8 9 10 10 7 7 7 6 5 6 7 6 7 8 9 10 10 10 11 11 12 11 11 11 12 12 14 14 13 14 15 13 14 13 12 12 13
7 7 11 13 16 18 11 7 5 6 13 6 6 7 7 7 11 9 8 9 10 10 11 12 11 11 11 11 10 12 13 14 15 14 13 12 13 14 13 12 12 11 12 12
11 11 14 14 15 13 8 6 5 13 12 6 6 6 7 9 9 10 10 10 11 11 11 11 11 11 10 10 11 13 14 14 14 13 12 12 11 11 11 11 11 11 11 12
11 13 14 14 16 18 6 7 11 9 6 6 6 5 9 10 11 11 11 12 11 12 11 11 11 11 10 10 12 13 14 13 12 13 13 12 12 11 11 11 11 11 12 13
13 10 12 11 11 7 6 7 6 5 6 5 5 6 9 11 11 11 12 12 12 12 11 10 11 11 11 11 11 13 13 12 12 12 13 12 11 11 11 12 13 13 12 13
8 7 11 10 8 7 6 5 5 5 5 5 4 7 9 11 11 11 12 12 12 11 10 10 11 12 12 11 11 11 11 11 12 12 12 12 12 12 12 13 14 15 16 15
9 9 10 10 8 8 7 6 5 5 5 5 5 7 9 10 11 11 12 12 11 9 9 10 11 11 11 11 11 11 11 11 12 12 13 12 12 14 15 15 15 16 16 16
7 9 10 11 7 8 7 5 4 5 5 6 7 9 9 10 11 11 11 10 10 10 10 11 11 11 11 11 11 11 10 11 12 13 12 12 12 13 14 15 16 14 15 15

GFSCGP_con_lsi_141.txt.gz
Lid_Strength_Index
10 13 14 12 11 11 11 12 13 12 10 10 11 11 10 9 9 9 9 7 8 8 7 7 6 7 7 7 8 8 8 8 8 8 8 8 7 7 6 6 6 6 6 6
12 14 10 9 9 10 11 12 13 11 9 10 12 13 11 10 9 9 9 8 8 8 8 7 7 8 8 8 8 9 9 8 9 8 8 8 7 7 7 7 7 6 6 6
12 11 9 9 10 11 12 12 12 12 10 11 12 13 12 9 8 8 7 7 8 8 8 7 7 8 8 8 9 9 9 9 8 8 8 8 8 8 8 8 8 8 7 8
12 10 10 11 12 11 13 10 10 11 13 16 12 17 13 11 10 9 7 8 8 8 7 7 7 8 8 9 8 9 8 9 8 8 9 9 10 10 9 9 9 9 8 9
13 12 12 13 12 10 12 9 11 11 13 15 14 16 14 11 11 9 9 7 8 7 7 7 7 8 8 8 8 9 8 8 8 9 9 10 10 10 10 10 10 10 10 10
13 9 11 11 9 9 9 11 12 12 14 18 15 15 15 13 11 9 8 7 7 7 7 7 8 8 8 8 8 9 9 8 8 8 9 10 10 10 11 11 11 11 10 10
13 13 11 9 11 10 11 14 18 19 19 19 13 14 13 10 8 7 8 7 7 7 7 7 8 8 8 9 9 9 9 9 8 9 9 9 10 10 11 11 11 11 11 11
16 17 13 10 11 12 13 13 18 20 20 17 13 16 14 8 7 6 6 6 6 7 6 7 7 8 9 9 9 9 9 9 8 9 10 10 10 10 11 11 11 11 11 11
13 14 10 9 9 10 13 14 11 14 15 17 16 13 10 8 8 7 7 6 7 7 6 7 8 9 9 9 9 9 9 8 8 9 9 10 10 11 11 11 11 11 11 10
11 14 10 9 9 10 11 10 15 15 19 21 16 15 15 11 10 8 8 8 7 6 6 7 8 8 9 9 9 9 9 9 9 9 9 10 10 9 10 11 11 11 11 11
10 12 12 9 11 12 11 12 11 12 14 19 19 17 10 10 9 9 8 7 7 6 5 7 8 8 8 8 8 9 9 9 9 9 9 10 10 10 10 11 11 11 11 11
9 11 16 13 10 8 9 11 11 16 17 16 17 17 8 8 8 7 7 6 6 5 5 7 7 8 9 9 8 8 9 9 9 9 10 10 11 11 12 12 12 12 13 12
10 13 17 15 12 11 12 11 11 11 13 16 18 16 8 7 7 7 7 6 6 6 5 6 7 8 8 8 8 9 10 10 10 10 11 12 12 12 13 12 12 12 12 13
8 11 15 18 15 13 14 12 11 12 16 15 14 13 10 9 8 7 7 6 6 6 5 7 7 7 8 9 10 10 11 10 10 11 12 13 13 13 13 12 12 12 13 13
10 14 13 12 12 12 12 12 12 12 12 14 12 12 10 9 9 8 6 7 7 6 7 7 8 8 9 10 10 11 11 11 12 13 13 14 14 13 12 12 12 12 13 13
9 14 12 13 11 11 12 12 12 11 10 11 11 12 9 8 7 7 7 7 7 7 8 7 7 8 10 10 11 11 11 11 12 14 15 15 13 13 14 13 14 13 13 14
11 13 14 16 11 12 15 12 10 10 9 10 13 11 8 9 8 8 7 7 7 7 7 7 8 10 11 11 11 11 12 12 14 15 14 15 15 15 17 14 14 16 16 15
11 12 13 16 14 20 12 8 8 9 9 9 9 8 8 8 8 9 9 8 6 7 8 11 11 12 12 12 11 12 12 14 14 15 15 14 16 18 16 18 19 18 18 19
8 11 14 16 16 13 12 10 11 11 11 8 9 8 8 7 8 10 10 11 10 11 12 12 12 12 12 12 12 13 14 14 14 17 18 19 19 20 19 20 19 18 16 16
8 8 13 15 17 21 13 8 6 7 14 8 8 9 8 8 13 10 10 10 11 12 11 11 11 13 12 12 13 14 15 15 17 17 17 16 17 18 19 19 17 16 16 15
13 13 14 14 16 13 9 7 6 14 14 8 7 8 9 11 11 9 11 11 11 11 12 12 13 13 13 12 13 15 15 17 17 14 14 15 13 13 16 15 15 15 15 13
13 14 15 14 16 18 7 8 12 9 8 7 7 8 10 10 11 11 11 12 12 12 12 12 13 13 12 13 13 14 16 15 14 15 14 14 14 12 12 13 14 13 13 15
14 12 14 12 13 8 7 8 7 6 7 7 8 8 9 11 11 12 12 12 12 12 12 12 13 12 12 11 13 16 15 13 13 13 14 15 12 13 14 15 16 15 15 16
9 8 12 11 9 8 7 7 6 6 7 7 7 9 9 10 11 12 12 12 12 12 12 12 12 12 12 11 13 13 13 13 13 13 13 14 14 14 15 15 15 16 17 18
10 8 10 11 9 8 7 6 6 6 5 7 8 9 10 10 11 11 12 12 11 12 12 12 12 12 12 12 12 12 12 12 13 14 14 14 14 15 16 16 16 17 20 18
8 9 11 12 8 8 8 7 5 6 7 8 9 9 9 10 11 11 12 11 11 11 11 11 11 11 12 12 13 12 12 13 14 14 14 14 15 16 16 16 17 15 15 15